Darstellungsparameter: Aktuell verwendete Einstellungen:
Skalierung der Graphiken ... ?
xyx+y,   Skalierungsfaktor:      Skalierung: Modus: x, Faktor: 1
Darstellungszeitraum ... ?
Vom - - bis: - -   Zeitraum: 05.12.2014 - 10.12.2014
Min/Max/Avg-Anzeige ... ?
Zeige MMA aktuell
Zeige MMA Monat
Zeige MMA alles
Zeige --A aktuell
Zeige --A Monat
Zeige --A alles
Keine MMA-Anzeige
MMA:
Keine MMA-Graphiken
MMA-Basis: 05.12.2014 - 10.12.2014
Quicknavigation für Darstellung... ?
Tage:      1T, 2T, 3T, 5T -1T -2T -3T -5T +1T +2T +3T +5T
Wochen: 1W, 2W, 3W -1W -2W -3W +1W +2W +3W
Monate: 1M, 3M, 6M -1M -3M -6M +1M +3M +6M
Jahre:    1J, 3J, 5J, 10J -1J -3J -5J -10J +1J +3J +5J +10J
Nutze für die Darstellung ... ?
Originaldaten oder Mittelwerte auf ...
Stundenbasis Tagesbasis Wochenbasis
Monatsbasis Jahresbasis      Datenbasis: Original-Daten
Darstellen als:
Statistik (Auto) Statistik J:M      Darstellung:
Zur Graphik,    zurück zur Übersicht aller Sensoren.
 
Tabellarische Datenbersicht: ?
 
Sensor: Nr:Datum:Temp:Abs-Feuchte:Windchill:Wind:
Aussen-T/F 1 05-12-2014 00:00:00 2.9 C 5.61 g/m*3 2.9 C 0 km/h
2 05-12-2014 00:05:00 2.9 C 5.61 g/m*3 2.9 C 0 km/h
3 05-12-2014 00:10:00 2.9 C 5.61 g/m*3 2.9 C 0 km/h
4 05-12-2014 00:15:00 2.9 C 5.61 g/m*3 2.9 C 0 km/h
5 05-12-2014 00:20:00 2.9 C 5.61 g/m*3 2.9 C 0 km/h
6 05-12-2014 00:25:00 2.9 C 5.61 g/m*3 2.9 C 0 km/h
7 05-12-2014 00:30:00 2.9 C 5.61 g/m*3 2.9 C 0 km/h
8 05-12-2014 00:35:00 2.9 C 5.61 g/m*3 2.9 C 0 km/h
9 05-12-2014 00:40:00 3 C 5.65 g/m*3 3 C 0 km/h
10 05-12-2014 00:45:00 3 C 5.65 g/m*3 3 C 0 km/h
11 05-12-2014 00:50:00 3 C 5.65 g/m*3 3 C 0 km/h
12 05-12-2014 00:55:00 3.1 C 5.69 g/m*3 3.1 C 0 km/h
13 05-12-2014 01:00:00 3.1 C 5.69 g/m*3 3.1 C 0 km/h
14 05-12-2014 01:05:00 3.1 C 5.69 g/m*3 3.1 C 0 km/h
15 05-12-2014 01:10:00 3.1 C 5.69 g/m*3 3.1 C 0 km/h
16 05-12-2014 01:15:00 3.1 C 5.69 g/m*3 3.1 C 1.6 km/h
17 05-12-2014 01:20:00 3.1 C 5.69 g/m*3 3.1 C 0 km/h
18 05-12-2014 01:25:00 3.1 C 5.69 g/m*3 3.1 C 1.6 km/h
19 05-12-2014 01:30:00 3.2 C 5.72 g/m*3 3.2 C 0 km/h
20 05-12-2014 01:35:00 3.2 C 5.72 g/m*3 3.2 C 0 km/h
21 05-12-2014 01:40:00 3.2 C 5.72 g/m*3 3.2 C 0 km/h
22 05-12-2014 01:45:00 3.2 C 5.72 g/m*3 3.2 C 0 km/h
23 05-12-2014 01:50:00 3.2 C 5.72 g/m*3 3.2 C 0 km/h
24 05-12-2014 01:55:00 3.2 C 5.72 g/m*3 3.2 C 0 km/h
25 05-12-2014 02:00:00 3.3 C 5.76 g/m*3 3.3 C 0 km/h
Sensor: Nr:Datum:Temp:Abs-Feuchte:Windchill:Wind:
Aussen-T/F 26 05-12-2014 02:05:00 3.2 C 5.72 g/m*3 3.2 C 0 km/h
27 05-12-2014 02:10:00 3.2 C 5.72 g/m*3 3.2 C 0 km/h
28 05-12-2014 02:15:00 3.2 C 5.72 g/m*3 3.2 C 0 km/h
29 05-12-2014 02:20:00 3.2 C 5.72 g/m*3 3.2 C 0 km/h
30 05-12-2014 02:25:00 3.2 C 5.72 g/m*3 3.2 C 0 km/h
31 05-12-2014 02:30:00 3.2 C 5.72 g/m*3 3.2 C 0 km/h
32 05-12-2014 02:35:00 3.2 C 5.72 g/m*3 3.2 C 0 km/h
33 05-12-2014 02:40:00 3.3 C 5.76 g/m*3 3.3 C 0 km/h
34 05-12-2014 02:45:00 3.3 C 5.76 g/m*3 3.3 C 0 km/h
35 05-12-2014 02:50:00 3.3 C 5.76 g/m*3 3.3 C 0 km/h
36 05-12-2014 02:55:00 3.3 C 5.76 g/m*3 3.3 C 0 km/h
37 05-12-2014 03:00:00 3.3 C 5.76 g/m*3 3.3 C 1.6 km/h
38 05-12-2014 03:05:00 3.3 C 5.76 g/m*3 3.3 C 0 km/h
39 05-12-2014 03:10:00 3.3 C 5.76 g/m*3 3.3 C 0 km/h
40 05-12-2014 03:15:00 3.3 C 5.7 g/m*3 3.3 C 0 km/h
41 05-12-2014 03:20:00 3.3 C 5.7 g/m*3 3.3 C 0 km/h
42 05-12-2014 03:25:00 3.3 C 5.7 g/m*3 3.3 C 3.2 km/h
43 05-12-2014 03:30:00 3.3 C 5.64 g/m*3 3.3 C 4.8 km/h
44 05-12-2014 03:35:00 3.3 C 5.64 g/m*3 3.3 C 1.6 km/h
45 05-12-2014 03:40:00 3.3 C 5.64 g/m*3 3.3 C 1.6 km/h
46 05-12-2014 03:45:00 3.3 C 5.64 g/m*3 3.3 C 3.2 km/h
47 05-12-2014 03:50:00 3.3 C 5.64 g/m*3 3.3 C 1.6 km/h
48 05-12-2014 03:55:00 3.3 C 5.64 g/m*3 3.3 C 4.8 km/h
49 05-12-2014 04:00:00 3.2 C 5.6 g/m*3 3.2 C 1.6 km/h
50 05-12-2014 04:05:00 3.2 C 5.6 g/m*3 3.2 C 0 km/h
Sensor: Nr:Datum:Temp:Abs-Feuchte:Windchill:Wind:
Aussen-T/F 51 05-12-2014 04:10:00 3.2 C 5.6 g/m*3 3.2 C 0 km/h
52 05-12-2014 04:15:00 3.2 C 5.6 g/m*3 3.2 C 1.6 km/h
53 05-12-2014 04:20:00 3.2 C 5.6 g/m*3 3.2 C 0 km/h
54 05-12-2014 04:25:00 3.2 C 5.6 g/m*3 3.2 C 1.6 km/h
55 05-12-2014 04:30:00 3.2 C 5.6 g/m*3 3.2 C 4.8 km/h
56 05-12-2014 04:35:00 3.2 C 5.6 g/m*3 3.2 C 1.6 km/h
57 05-12-2014 04:40:00 3.2 C 5.6 g/m*3 3.2 C 3.2 km/h
58 05-12-2014 04:45:00 3.2 C 5.6 g/m*3 3.2 C 3.2 km/h
59 05-12-2014 04:50:00 3.2 C 5.6 g/m*3 3.2 C 3.2 km/h
60 05-12-2014 04:55:00 3.2 C 5.6 g/m*3 3.2 C 1.6 km/h
61 05-12-2014 05:00:00 3.2 C 5.6 g/m*3 3.2 C 1.6 km/h
62 05-12-2014 05:05:00 3.2 C 5.6 g/m*3 3.2 C 0 km/h
63 05-12-2014 05:10:00 3.1 C 5.57 g/m*3 3.1 C 0 km/h
64 05-12-2014 05:15:00 3.1 C 5.57 g/m*3 3.1 C 0 km/h
65 05-12-2014 05:20:00 3.1 C 5.57 g/m*3 3.1 C 0 km/h
66 05-12-2014 05:25:00 3.1 C 5.57 g/m*3 3.1 C 1.6 km/h
67 05-12-2014 05:30:00 3.1 C 5.57 g/m*3 3.1 C 0 km/h
68 05-12-2014 05:35:00 3.1 C 5.57 g/m*3 3.1 C 0 km/h
69 05-12-2014 05:40:00 3.1 C 5.57 g/m*3 3.1 C 1.6 km/h
70 05-12-2014 05:45:00 3.1 C 5.57 g/m*3 3.1 C 3.2 km/h
71 05-12-2014 05:50:00 3.1 C 5.57 g/m*3 3.1 C 1.6 km/h
72 05-12-2014 05:55:00 3.1 C 5.57 g/m*3 3.1 C 1.6 km/h
73 05-12-2014 06:00:00 3.1 C 5.57 g/m*3 3.1 C 0 km/h
74 05-12-2014 06:05:00 3.1 C 5.57 g/m*3 3.1 C 1.6 km/h
75 05-12-2014 06:10:00 3.1 C 5.57 g/m*3 3.1 C 0 km/h
Sensor: Nr:Datum:Temp:Abs-Feuchte:Windchill:Wind:
Aussen-T/F 76 05-12-2014 06:15:00 3.1 C 5.57 g/m*3 3.1 C 0 km/h
77 05-12-2014 06:20:00 3.1 C 5.57 g/m*3 3.1 C 0 km/h
78 05-12-2014 06:25:00 3.1 C 5.57 g/m*3 3.1 C 0 km/h
79 05-12-2014 06:30:00 3.1 C 5.57 g/m*3 3.1 C 0 km/h
80 05-12-2014 06:35:00 3.1 C 5.63 g/m*3 3.1 C 0 km/h
81 05-12-2014 06:40:00 3.1 C 5.63 g/m*3 3.1 C 0 km/h
82 05-12-2014 06:45:00 3.1 C 5.63 g/m*3 3.1 C 0 km/h
83 05-12-2014 06:50:00 3.1 C 5.63 g/m*3 3.1 C 0 km/h
84 05-12-2014 06:55:00 3.1 C 5.63 g/m*3 3.1 C 0 km/h
85 05-12-2014 07:00:00 3.1 C 5.63 g/m*3 3.1 C 0 km/h
86 05-12-2014 07:05:00 3.1 C 5.63 g/m*3 3.1 C 0 km/h
87 05-12-2014 07:10:00 3.1 C 5.63 g/m*3 3.1 C 0 km/h
88 05-12-2014 07:15:00 3.1 C 5.63 g/m*3 3.1 C 1.6 km/h
89 05-12-2014 07:20:00 3.1 C 5.63 g/m*3 3.1 C 0 km/h
90 05-12-2014 07:25:00 3.2 C 5.66 g/m*3 3.2 C 0 km/h
91 05-12-2014 07:30:00 3.2 C 5.66 g/m*3 3.2 C 1.6 km/h
92 05-12-2014 07:35:00 3.2 C 5.66 g/m*3 3.2 C 0 km/h
93 05-12-2014 07:40:00 3.2 C 5.66 g/m*3 3.2 C 0 km/h
94 05-12-2014 07:45:00 3.2 C 5.66 g/m*3 3.2 C 0 km/h
95 05-12-2014 07:50:00 3.2 C 5.66 g/m*3 3.2 C 0 km/h
96 05-12-2014 07:55:00 3.2 C 5.66 g/m*3 3.2 C 0 km/h
97 05-12-2014 08:00:00 3.2 C 5.66 g/m*3 3.2 C 0 km/h
98 05-12-2014 08:05:00 3.2 C 5.66 g/m*3 3.2 C 0 km/h
99 05-12-2014 08:10:00 3.2 C 5.66 g/m*3 3.2 C 0 km/h
100 05-12-2014 08:15:00 3.2 C 5.66 g/m*3 3.2 C 0 km/h
Sensor: Nr:Datum:Temp:Abs-Feuchte:Windchill:Wind:
Aussen-T/F 101 05-12-2014 08:20:00 3.2 C 5.66 g/m*3 3.2 C 0 km/h
102 05-12-2014 08:25:00 3.2 C 5.66 g/m*3 3.2 C 0 km/h
103 05-12-2014 08:30:00 3.2 C 5.66 g/m*3 3.2 C 0 km/h
104 05-12-2014 08:35:00 3.2 C 5.66 g/m*3 3.2 C 0 km/h
105 05-12-2014 08:40:00 3.2 C 5.66 g/m*3 3.2 C 0 km/h
106 05-12-2014 08:45:00 3.2 C 5.66 g/m*3 3.2 C 0 km/h
107 05-12-2014 08:50:00 3.2 C 5.66 g/m*3 3.2 C 0 km/h
108 05-12-2014 08:55:00 3.3 C 5.7 g/m*3 3.3 C 0 km/h
109 05-12-2014 09:00:00 3.3 C 5.7 g/m*3 3.3 C 0 km/h
110 05-12-2014 09:05:00 3.3 C 5.7 g/m*3 3.3 C 0 km/h
111 05-12-2014 09:10:00 3.3 C 5.7 g/m*3 3.3 C 0 km/h
112 05-12-2014 09:15:00 3.3 C 5.7 g/m*3 3.3 C 0 km/h
113 05-12-2014 09:20:00 3.4 C 5.74 g/m*3 3.4 C 0 km/h
114 05-12-2014 09:25:00 3.4 C 5.68 g/m*3 3.4 C 0 km/h
115 05-12-2014 09:30:00 3.6 C 5.76 g/m*3 3.6 C 0 km/h
116 05-12-2014 09:35:00 3.6 C 5.82 g/m*3 3.6 C 0 km/h
117 05-12-2014 09:40:00 3.7 C 5.8 g/m*3 3.7 C 0 km/h
118 05-12-2014 09:45:00 3.7 C 5.8 g/m*3 3.7 C 0 km/h
119 05-12-2014 09:50:00 3.7 C 5.8 g/m*3 3.7 C 0 km/h
120 05-12-2014 09:55:00 3.8 C 5.83 g/m*3 3.8 C 1.6 km/h
121 05-12-2014 10:00:00 3.8 C 5.77 g/m*3 3.8 C 1.6 km/h
122 05-12-2014 10:05:00 3.9 C 5.81 g/m*3 3.9 C 3.2 km/h
123 05-12-2014 10:10:00 3.9 C 5.81 g/m*3 3.9 C 1.6 km/h
124 05-12-2014 10:15:00 4 C 5.85 g/m*3 4 C 1.6 km/h
125 05-12-2014 10:20:00 4.1 C 5.89 g/m*3 2.55 C 6.4 km/h
Sensor: Nr:Datum:Temp:Abs-Feuchte:Windchill:Wind:
Aussen-T/F 126 05-12-2014 10:25:00 4.2 C 5.93 g/m*3 2.67 C 6.4 km/h
127 05-12-2014 10:30:00 4.2 C 5.86 g/m*3 4.2 C 4.8 km/h
128 05-12-2014 10:35:00 4.2 C 5.86 g/m*3 4.2 C 4.8 km/h
129 05-12-2014 10:40:00 4.2 C 5.86 g/m*3 4.2 C 4.8 km/h
130 05-12-2014 10:45:00 4.3 C 5.9 g/m*3 4.3 C 1.6 km/h
131 05-12-2014 10:50:00 4.3 C 5.9 g/m*3 4.3 C 3.2 km/h
132 05-12-2014 10:55:00 4.3 C 5.9 g/m*3 4.3 C 1.6 km/h
133 05-12-2014 11:00:00 4.3 C 5.9 g/m*3 4.3 C 0 km/h
134 05-12-2014 11:05:00 4.3 C 5.9 g/m*3 4.3 C 0 km/h
135 05-12-2014 11:10:00 4.4 C 5.94 g/m*3 4.4 C 0 km/h
136 05-12-2014 11:15:00 4.4 C 5.94 g/m*3 4.4 C 1.6 km/h
137 05-12-2014 11:20:00 4.4 C 5.94 g/m*3 4.4 C 3.2 km/h
138 05-12-2014 11:25:00 4.5 C 5.98 g/m*3 4.5 C 3.2 km/h
139 05-12-2014 11:30:00 4.6 C 6.02 g/m*3 4.6 C 1.6 km/h
140 05-12-2014 11:35:00 4.6 C 6.02 g/m*3 4.6 C 3.2 km/h
141 05-12-2014 11:40:00 4.6 C 5.96 g/m*3 4.6 C 3.2 km/h
142 05-12-2014 11:45:00 4.7 C 6 g/m*3 4.7 C 3.2 km/h
143 05-12-2014 11:50:00 4.7 C 6.06 g/m*3 4.7 C 1.6 km/h
144 05-12-2014 11:55:00 4.7 C 6 g/m*3 4.7 C 0 km/h
145 05-12-2014 12:00:00 4.8 C 6.1 g/m*3 4.8 C 1.6 km/h
146 05-12-2014 12:05:00 4.8 C 6.04 g/m*3 4.8 C 1.6 km/h
147 05-12-2014 12:10:00 4.8 C 6.04 g/m*3 3.36 C 6.4 km/h
148 05-12-2014 12:15:00 4.8 C 6.04 g/m*3 4.8 C 4.8 km/h
149 05-12-2014 12:20:00 4.8 C 6.04 g/m*3 4.8 C 4.8 km/h
150 05-12-2014 12:25:00 4.9 C 6.08 g/m*3 3.48 C 6.4 km/h
Sensor: Nr:Datum:Temp:Abs-Feuchte:Windchill:Wind:
Aussen-T/F 151 05-12-2014 12:30:00 4.8 C 6.04 g/m*3 4.8 C 3.2 km/h
152 05-12-2014 12:35:00 4.9 C 6.08 g/m*3 3.48 C 6.4 km/h
153 05-12-2014 12:40:00 4.9 C 6.08 g/m*3 4.9 C 4.8 km/h
154 05-12-2014 12:45:00 4.9 C 6.08 g/m*3 4.9 C 3.2 km/h
155 05-12-2014 12:50:00 4.9 C 6.08 g/m*3 4.9 C 1.6 km/h
156 05-12-2014 12:55:00 4.9 C 6.08 g/m*3 3.48 C 6.4 km/h
157 05-12-2014 13:00:00 4.9 C 6.08 g/m*3 4.9 C 4.8 km/h
158 05-12-2014 13:05:00 4.9 C 6.08 g/m*3 4.9 C 4.8 km/h
159 05-12-2014 13:10:00 4.9 C 6.08 g/m*3 4.9 C 4.8 km/h
160 05-12-2014 13:15:00 5 C 6.12 g/m*3 3.59 C 6.4 km/h
161 05-12-2014 13:20:00 5 C 6.12 g/m*3 5 C 4.8 km/h
162 05-12-2014 13:25:00 5.1 C 6.16 g/m*3 5.1 C 3.2 km/h
163 05-12-2014 13:30:00 5.1 C 6.16 g/m*3 5.1 C 3.2 km/h
164 05-12-2014 13:35:00 5.2 C 6.2 g/m*3 5.2 C 4.8 km/h
165 05-12-2014 13:40:00 5.2 C 6.2 g/m*3 3.82 C 6.4 km/h
166 05-12-2014 13:45:00 5.2 C 6.2 g/m*3 5.2 C 4.8 km/h
167 05-12-2014 13:50:00 5.2 C 6.2 g/m*3 3.82 C 6.4 km/h
168 05-12-2014 13:55:00 5.3 C 6.17 g/m*3 5.3 C 4.8 km/h
169 05-12-2014 14:00:00 5.3 C 6.24 g/m*3 5.3 C 3.2 km/h
170 05-12-2014 14:05:00 5.3 C 6.24 g/m*3 5.3 C 3.2 km/h
171 05-12-2014 14:10:00 5.3 C 6.24 g/m*3 5.3 C 3.2 km/h
172 05-12-2014 14:15:00 5.3 C 6.24 g/m*3 5.3 C 1.6 km/h
173 05-12-2014 14:20:00 5.3 C 6.24 g/m*3 5.3 C 1.6 km/h
174 05-12-2014 14:25:00 5.3 C 6.24 g/m*3 5.3 C 4.8 km/h
175 05-12-2014 14:30:00 5.3 C 6.24 g/m*3 5.3 C 3.2 km/h
Sensor: Nr:Datum:Temp:Abs-Feuchte:Windchill:Wind:
Aussen-T/F 176 05-12-2014 14:35:00 5.3 C 6.17 g/m*3 5.3 C 1.6 km/h
177 05-12-2014 14:40:00 5.4 C 6.28 g/m*3 5.4 C 3.2 km/h
178 05-12-2014 14:45:00 5.4 C 6.21 g/m*3 5.4 C 1.6 km/h
179 05-12-2014 14:50:00 5.4 C 6.28 g/m*3 5.4 C 0 km/h
180 05-12-2014 14:55:00 5.4 C 6.21 g/m*3 5.4 C 0 km/h
181 05-12-2014 15:00:00 5.4 C 6.21 g/m*3 5.4 C 1.6 km/h
182 05-12-2014 15:05:00 5.4 C 6.21 g/m*3 5.4 C 0 km/h
183 05-12-2014 15:10:00 5.4 C 6.21 g/m*3 5.4 C 0 km/h
184 05-12-2014 15:15:00 5.4 C 6.21 g/m*3 5.4 C 0 km/h
185 05-12-2014 15:20:00 5.4 C 6.21 g/m*3 5.4 C 0 km/h
186 05-12-2014 15:25:00 5.4 C 6.28 g/m*3 5.4 C 0 km/h
187 05-12-2014 15:30:00 5.4 C 6.28 g/m*3 5.4 C 0 km/h
188 05-12-2014 15:35:00 5.4 C 6.28 g/m*3 5.4 C 0 km/h
189 05-12-2014 15:40:00 5.4 C 6.28 g/m*3 5.4 C 0 km/h
190 05-12-2014 15:45:00 5.3 C 6.24 g/m*3 5.3 C 0 km/h
191 05-12-2014 15:50:00 5.3 C 6.24 g/m*3 5.3 C 0 km/h
192 05-12-2014 15:55:00 5.3 C 6.31 g/m*3 5.3 C 0 km/h
193 05-12-2014 16:00:00 5.3 C 6.24 g/m*3 5.3 C 0 km/h
194 05-12-2014 16:05:00 5.3 C 6.31 g/m*3 5.3 C 0 km/h
195 05-12-2014 16:10:00 5.2 C 6.27 g/m*3 5.2 C 0 km/h
196 05-12-2014 16:15:00 5.2 C 6.27 g/m*3 5.2 C 0 km/h
197 05-12-2014 16:20:00 5.2 C 6.33 g/m*3 5.2 C 0 km/h
198 05-12-2014 16:25:00 5.2 C 6.33 g/m*3 5.2 C 0 km/h
199 05-12-2014 16:30:00 5.1 C 6.29 g/m*3 5.1 C 0 km/h
200 05-12-2014 16:35:00 5.1 C 6.29 g/m*3 5.1 C 0 km/h
Sensor: Nr:Datum:Temp:Abs-Feuchte:Windchill:Wind:
Aussen-T/F 201 05-12-2014 16:40:00 5 C 6.25 g/m*3 5 C 0 km/h
202 05-12-2014 16:45:00 4.9 C 6.21 g/m*3 4.9 C 0 km/h
203 05-12-2014 16:50:00 4.9 C 6.21 g/m*3 4.9 C 0 km/h
204 05-12-2014 16:55:00 4.9 C 6.28 g/m*3 4.9 C 0 km/h
205 05-12-2014 17:00:00 4.9 C 6.28 g/m*3 4.9 C 0 km/h
206 05-12-2014 17:05:00 4.9 C 6.28 g/m*3 4.9 C 0 km/h
207 05-12-2014 17:10:00 4.8 C 6.24 g/m*3 4.8 C 0 km/h
208 05-12-2014 17:15:00 4.8 C 6.24 g/m*3 4.8 C 0 km/h
209 05-12-2014 17:20:00 4.8 C 6.24 g/m*3 4.8 C 0 km/h
210 05-12-2014 17:25:00 4.8 C 6.24 g/m*3 4.8 C 0 km/h
211 05-12-2014 17:30:00 4.8 C 6.24 g/m*3 4.8 C 0 km/h
212 05-12-2014 17:35:00 4.8 C 6.24 g/m*3 4.8 C 0 km/h
213 05-12-2014 17:40:00 4.8 C 6.24 g/m*3 4.8 C 0 km/h
214 05-12-2014 17:45:00 4.8 C 6.24 g/m*3 4.8 C 0 km/h
215 05-12-2014 17:50:00 4.8 C 6.24 g/m*3 4.8 C 0 km/h
216 05-12-2014 17:55:00 4.8 C 6.24 g/m*3 4.8 C 0 km/h
217 05-12-2014 18:00:00 4.8 C 6.24 g/m*3 4.8 C 0 km/h
218 05-12-2014 18:05:00 4.8 C 6.24 g/m*3 4.8 C 0 km/h
219 05-12-2014 18:10:00 4.8 C 6.24 g/m*3 4.8 C 0 km/h
220 05-12-2014 18:15:00 4.8 C 6.3 g/m*3 4.8 C 0 km/h
221 05-12-2014 18:20:00 4.8 C 6.3 g/m*3 4.8 C 0 km/h
222 05-12-2014 18:25:00 4.7 C 6.26 g/m*3 4.7 C 0 km/h
223 05-12-2014 18:30:00 4.7 C 6.26 g/m*3 4.7 C 0 km/h
224 05-12-2014 18:35:00 4.7 C 6.26 g/m*3 4.7 C 0 km/h
225 05-12-2014 18:40:00 4.7 C 6.26 g/m*3 4.7 C 0 km/h
Sensor: Nr:Datum:Temp:Abs-Feuchte:Windchill:Wind:
Aussen-T/F 226 05-12-2014 18:45:00 4.7 C 6.26 g/m*3 4.7 C 0 km/h
227 05-12-2014 18:50:00 4.7 C 6.26 g/m*3 4.7 C 0 km/h
228 05-12-2014 18:55:00 4.7 C 6.26 g/m*3 4.7 C 0 km/h
229 05-12-2014 19:00:00 4.7 C 6.26 g/m*3 4.7 C 0 km/h
230 05-12-2014 19:05:00 4.7 C 6.26 g/m*3 4.7 C 0 km/h
231 05-12-2014 19:10:00 4.7 C 6.26 g/m*3 4.7 C 0 km/h
232 05-12-2014 19:15:00 4.7 C 6.26 g/m*3 4.7 C 0 km/h
233 05-12-2014 19:20:00 4.7 C 6.26 g/m*3 4.7 C 0 km/h
234 05-12-2014 19:25:00 4.7 C 6.26 g/m*3 4.7 C 0 km/h
235 05-12-2014 19:30:00 4.7 C 6.26 g/m*3 4.7 C 0 km/h
236 05-12-2014 19:35:00 4.7 C 6.26 g/m*3 4.7 C 1.6 km/h
237 05-12-2014 19:40:00 4.8 C 6.3 g/m*3 4.8 C 0 km/h
238 05-12-2014 19:45:00 4.7 C 6.26 g/m*3 4.7 C 0 km/h
239 05-12-2014 19:50:00 4.7 C 6.26 g/m*3 4.7 C 0 km/h
240 05-12-2014 19:55:00 4.7 C 6.26 g/m*3 4.7 C 3.2 km/h
241 05-12-2014 20:00:00 4.8 C 6.3 g/m*3 4.8 C 3.2 km/h
242 05-12-2014 20:05:00 4.8 C 6.3 g/m*3 4.8 C 0 km/h
243 05-12-2014 20:10:00 4.8 C 6.3 g/m*3 4.8 C 0 km/h
244 05-12-2014 20:15:00 4.8 C 6.3 g/m*3 4.8 C 0 km/h
245 05-12-2014 20:20:00 4.8 C 6.3 g/m*3 4.8 C 1.6 km/h
246 05-12-2014 20:25:00 4.8 C 6.3 g/m*3 4.8 C 1.6 km/h
247 05-12-2014 20:30:00 4.8 C 6.3 g/m*3 4.8 C 0 km/h
248 05-12-2014 20:35:00 4.8 C 6.3 g/m*3 4.8 C 0 km/h
249 05-12-2014 20:40:00 4.8 C 6.3 g/m*3 4.8 C 0 km/h
250 05-12-2014 20:45:00 4.8 C 6.3 g/m*3 4.8 C 1.6 km/h
Sensor: Nr:Datum:Temp:Abs-Feuchte:Windchill:Wind:
Aussen-T/F 251 05-12-2014 20:50:00 4.8 C 6.3 g/m*3 4.8 C 1.6 km/h
252 05-12-2014 20:55:00 4.8 C 6.3 g/m*3 4.8 C 0 km/h
253 05-12-2014 21:00:00 4.8 C 6.3 g/m*3 4.8 C 0 km/h
254 05-12-2014 21:05:00 4.8 C 6.3 g/m*3 4.8 C 0 km/h
255 05-12-2014 21:10:00 4.8 C 6.3 g/m*3 4.8 C 0 km/h
256 05-12-2014 21:15:00 4.8 C 6.3 g/m*3 4.8 C 0 km/h
257 05-12-2014 21:20:00 4.8 C 6.3 g/m*3 4.8 C 0 km/h
258 05-12-2014 21:25:00 4.8 C 6.3 g/m*3 4.8 C 0 km/h
259 05-12-2014 21:30:00 4.8 C 6.24 g/m*3 4.8 C 0 km/h
260 05-12-2014 21:35:00 4.8 C 6.24 g/m*3 4.8 C 0 km/h
261 05-12-2014 21:40:00 4.8 C 6.24 g/m*3 4.8 C 3.2 km/h
262 05-12-2014 21:45:00 4.8 C 6.24 g/m*3 4.8 C 3.2 km/h
263 05-12-2014 21:50:00 4.8 C 6.24 g/m*3 4.8 C 1.6 km/h
264 05-12-2014 21:55:00 4.8 C 6.24 g/m*3 4.8 C 3.2 km/h
265 05-12-2014 22:00:00 4.8 C 6.24 g/m*3 4.8 C 0 km/h
266 05-12-2014 22:05:00 4.8 C 6.24 g/m*3 4.8 C 3.2 km/h
267 05-12-2014 22:10:00 4.8 C 6.24 g/m*3 4.8 C 0 km/h
268 05-12-2014 22:15:00 4.8 C 6.24 g/m*3 4.8 C 0 km/h
269 05-12-2014 22:20:00 4.8 C 6.24 g/m*3 4.8 C 0 km/h
270 05-12-2014 22:25:00 4.8 C 6.24 g/m*3 4.8 C 0 km/h
271 05-12-2014 22:30:00 4.7 C 6.19 g/m*3 4.7 C 0 km/h
272 05-12-2014 22:35:00 4.7 C 6.19 g/m*3 4.7 C 0 km/h
273 05-12-2014 22:40:00 4.7 C 6.26 g/m*3 4.7 C 0 km/h
274 05-12-2014 22:45:00 4.7 C 6.26 g/m*3 4.7 C 0 km/h
275 05-12-2014 22:50:00 4.7 C 6.26 g/m*3 4.7 C 0 km/h
Sensor: Nr:Datum:Temp:Abs-Feuchte:Windchill:Wind:
Aussen-T/F 276 05-12-2014 22:55:00 4.7 C 6.26 g/m*3 4.7 C 0 km/h
277 05-12-2014 23:00:00 4.7 C 6.26 g/m*3 4.7 C 0 km/h
278 05-12-2014 23:05:00 4.7 C 6.19 g/m*3 4.7 C 0 km/h
279 05-12-2014 23:10:00 4.7 C 6.13 g/m*3 4.7 C 3.2 km/h
280 05-12-2014 23:15:00 4.7 C 6.06 g/m*3 4.7 C 3.2 km/h
281 05-12-2014 23:20:00 4.8 C 6.1 g/m*3 4.8 C 1.6 km/h
282 05-12-2014 23:25:00 4.8 C 6.1 g/m*3 4.8 C 1.6 km/h
283 05-12-2014 23:30:00 4.8 C 6.1 g/m*3 4.8 C 1.6 km/h
284 05-12-2014 23:35:00 4.8 C 6.1 g/m*3 4.8 C 3.2 km/h
285 05-12-2014 23:40:00 4.8 C 6.1 g/m*3 4.8 C 1.6 km/h
286 05-12-2014 23:45:00 4.7 C 6.06 g/m*3 4.7 C 3.2 km/h
287 05-12-2014 23:50:00 4.7 C 6.06 g/m*3 4.7 C 1.6 km/h
288 05-12-2014 23:55:00 4.7 C 6 g/m*3 4.7 C 0 km/h
289 06-12-2014 00:00:00 4.7 C 6 g/m*3 4.7 C 0 km/h
290 06-12-2014 00:05:00 4.7 C 6.06 g/m*3 4.7 C 0 km/h
291 06-12-2014 00:10:00 4.5 C 5.98 g/m*3 4.5 C 0 km/h
292 06-12-2014 00:15:00 4.3 C 5.9 g/m*3 4.3 C 1.6 km/h
293 06-12-2014 00:20:00 4.1 C 5.89 g/m*3 4.1 C 0 km/h
294 06-12-2014 00:25:00 3.9 C 5.87 g/m*3 3.9 C 0 km/h
295 06-12-2014 00:30:00 3.8 C 5.83 g/m*3 3.8 C 1.6 km/h
296 06-12-2014 00:35:00 3.7 C 5.8 g/m*3 3.7 C 0 km/h
297 06-12-2014 00:40:00 3.6 C 5.76 g/m*3 3.6 C 1.6 km/h
298 06-12-2014 00:45:00 3.4 C 5.68 g/m*3 3.4 C 1.6 km/h
299 06-12-2014 00:50:00 3.3 C 5.7 g/m*3 3.3 C 3.2 km/h
300 06-12-2014 00:55:00 3.2 C 5.66 g/m*3 3.2 C 3.2 km/h
Sensor: Nr:Datum:Temp:Abs-Feuchte:Windchill:Wind:
Aussen-T/F 301 06-12-2014 01:00:00 3.2 C 5.66 g/m*3 3.2 C 3.2 km/h
302 06-12-2014 01:05:00 3.1 C 5.63 g/m*3 3.1 C 0 km/h
303 06-12-2014 01:10:00 3 C 5.65 g/m*3 3 C 0 km/h
304 06-12-2014 01:15:00 2.9 C 5.61 g/m*3 2.9 C 1.6 km/h
305 06-12-2014 01:20:00 2.8 C 5.57 g/m*3 2.8 C 3.2 km/h
306 06-12-2014 01:25:00 2.7 C 5.54 g/m*3 2.7 C 0 km/h
307 06-12-2014 01:30:00 2.6 C 5.5 g/m*3 2.6 C 1.6 km/h
308 06-12-2014 01:35:00 2.5 C 5.46 g/m*3 2.5 C 1.6 km/h
309 06-12-2014 01:40:00 2.5 C 5.46 g/m*3 2.5 C 1.6 km/h
310 06-12-2014 01:45:00 2.6 C 5.56 g/m*3 2.6 C 1.6 km/h
311 06-12-2014 01:50:00 2.7 C 5.59 g/m*3 2.7 C 1.6 km/h
312 06-12-2014 01:55:00 2.8 C 5.63 g/m*3 2.8 C 0 km/h
313 06-12-2014 02:00:00 2.9 C 5.67 g/m*3 2.9 C 0 km/h
314 06-12-2014 02:05:00 3 C 5.71 g/m*3 3 C 0 km/h
315 06-12-2014 02:10:00 3 C 5.71 g/m*3 3 C 0 km/h
316 06-12-2014 02:15:00 3.1 C 5.75 g/m*3 3.1 C 0 km/h
317 06-12-2014 02:20:00 3.1 C 5.75 g/m*3 3.1 C 0 km/h
318 06-12-2014 02:25:00 3.1 C 5.75 g/m*3 3.1 C 0 km/h
319 06-12-2014 02:30:00 3.2 C 5.79 g/m*3 3.2 C 0 km/h
320 06-12-2014 02:35:00 3.2 C 5.79 g/m*3 3.2 C 0 km/h
321 06-12-2014 02:40:00 3.2 C 5.79 g/m*3 3.2 C 0 km/h
322 06-12-2014 02:45:00 3.2 C 5.79 g/m*3 3.2 C 0 km/h
323 06-12-2014 02:50:00 3.3 C 5.82 g/m*3 3.3 C 0 km/h
324 06-12-2014 02:55:00 3.3 C 5.82 g/m*3 3.3 C 0 km/h
325 06-12-2014 03:00:00 3.3 C 5.82 g/m*3 3.3 C 0 km/h
Sensor: Nr:Datum:Temp:Abs-Feuchte:Windchill:Wind:
Aussen-T/F 326 06-12-2014 03:05:00 3.3 C 5.82 g/m*3 3.3 C 0 km/h
327 06-12-2014 03:10:00 3.3 C 5.82 g/m*3 1.63 C 6.4 km/h
328 06-12-2014 03:15:00 3.4 C 5.8 g/m*3 3.4 C 1.6 km/h
329 06-12-2014 03:20:00 3.4 C 5.86 g/m*3 3.4 C 0 km/h
330 06-12-2014 03:25:00 3.4 C 5.8 g/m*3 3.4 C 1.6 km/h
331 06-12-2014 03:30:00 3.5 C 5.84 g/m*3 3.5 C 3.2 km/h
332 06-12-2014 03:35:00 3.6 C 5.88 g/m*3 3.6 C 0 km/h
333 06-12-2014 03:40:00 3.6 C 5.88 g/m*3 3.6 C 4.8 km/h
334 06-12-2014 03:45:00 3.6 C 5.88 g/m*3 3.6 C 0 km/h
335 06-12-2014 03:50:00 3.6 C 5.88 g/m*3 3.6 C 3.2 km/h
336 06-12-2014 03:55:00 3.6 C 5.88 g/m*3 1.98 C 6.4 km/h
337 06-12-2014 04:00:00 3.6 C 5.88 g/m*3 3.6 C 1.6 km/h
338 06-12-2014 04:05:00 3.6 C 5.88 g/m*3 3.6 C 1.6 km/h
339 06-12-2014 04:10:00 3.6 C 5.88 g/m*3 3.6 C 1.6 km/h
340 06-12-2014 04:15:00 3.6 C 5.88 g/m*3 3.6 C 0 km/h
341 06-12-2014 04:20:00 3.6 C 5.88 g/m*3 3.6 C 1.6 km/h
342 06-12-2014 04:25:00 3.6 C 5.88 g/m*3 3.6 C 0 km/h
343 06-12-2014 04:30:00 3.6 C 5.88 g/m*3 3.6 C 3.2 km/h
344 06-12-2014 04:35:00 3.7 C 5.92 g/m*3 3.7 C 3.2 km/h
345 06-12-2014 04:40:00 3.6 C 5.88 g/m*3 3.6 C 4.8 km/h
346 06-12-2014 04:45:00 3.6 C 5.88 g/m*3 3.6 C 4.8 km/h
347 06-12-2014 04:50:00 3.7 C 5.92 g/m*3 3.7 C 1.6 km/h
348 06-12-2014 04:55:00 3.6 C 5.88 g/m*3 3.6 C 0 km/h
349 06-12-2014 05:00:00 3.6 C 5.88 g/m*3 3.6 C 0 km/h
350 06-12-2014 05:05:00 3.7 C 5.92 g/m*3 3.7 C 0 km/h
Sensor: Nr:Datum:Temp:Abs-Feuchte:Windchill:Wind:
Aussen-T/F 351 06-12-2014 05:10:00 3.7 C 5.92 g/m*3 3.7 C 3.2 km/h
352 06-12-2014 05:15:00 3.7 C 5.92 g/m*3 3.7 C 0 km/h
353 06-12-2014 05:20:00 3.7 C 5.92 g/m*3 3.7 C 1.6 km/h
354 06-12-2014 05:25:00 3.7 C 5.92 g/m*3 3.7 C 3.2 km/h
355 06-12-2014 05:30:00 3.7 C 5.92 g/m*3 3.7 C 3.2 km/h
356 06-12-2014 05:35:00 3.7 C 5.92 g/m*3 3.7 C 3.2 km/h
357 06-12-2014 05:40:00 3.7 C 5.92 g/m*3 3.7 C 3.2 km/h
358 06-12-2014 05:45:00 3.8 C 5.96 g/m*3 3.8 C 1.6 km/h
359 06-12-2014 05:50:00 3.8 C 5.96 g/m*3 3.8 C 0 km/h
360 06-12-2014 05:55:00 3.8 C 5.96 g/m*3 3.8 C 1.6 km/h
361 06-12-2014 06:00:00 3.8 C 5.9 g/m*3 3.8 C 3.2 km/h
362 06-12-2014 06:05:00 3.8 C 5.9 g/m*3 3.8 C 3.2 km/h
363 06-12-2014 06:10:00 3.8 C 5.9 g/m*3 2.21 C 6.4 km/h
364 06-12-2014 06:15:00 3.8 C 5.96 g/m*3 3.8 C 3.2 km/h
365 06-12-2014 06:20:00 3.8 C 5.9 g/m*3 3.8 C 3.2 km/h
366 06-12-2014 06:25:00 3.8 C 5.9 g/m*3 3.8 C 0 km/h
367 06-12-2014 06:30:00 3.8 C 5.9 g/m*3 3.8 C 0 km/h
368 06-12-2014 06:35:00 3.8 C 5.9 g/m*3 3.8 C 0 km/h
369 06-12-2014 06:40:00 3.8 C 5.9 g/m*3 3.8 C 0 km/h
370 06-12-2014 06:45:00 3.8 C 5.9 g/m*3 3.8 C 0 km/h
371 06-12-2014 06:50:00 3.8 C 5.9 g/m*3 3.8 C 1.6 km/h
372 06-12-2014 06:55:00 3.9 C 5.94 g/m*3 3.9 C 0 km/h
373 06-12-2014 07:00:00 3.9 C 5.94 g/m*3 3.9 C 0 km/h
374 06-12-2014 07:05:00 3.9 C 6 g/m*3 3.9 C 0 km/h
375 06-12-2014 07:10:00 3.9 C 5.94 g/m*3 3.9 C 0 km/h
Sensor: Nr:Datum:Temp:Abs-Feuchte:Windchill:Wind:
Aussen-T/F 376 06-12-2014 07:15:00 3.9 C 5.94 g/m*3 3.9 C 1.6 km/h
377 06-12-2014 07:20:00 3.9 C 5.94 g/m*3 3.9 C 1.6 km/h
378 06-12-2014 07:25:00 3.9 C 5.94 g/m*3 3.9 C 1.6 km/h
379 06-12-2014 07:30:00 3.9 C 5.94 g/m*3 3.9 C 0 km/h
380 06-12-2014 07:35:00 3.9 C 5.94 g/m*3 3.9 C 0 km/h
381 06-12-2014 07:40:00 3.9 C 5.94 g/m*3 3.9 C 3.2 km/h
382 06-12-2014 07:45:00 3.9 C 5.94 g/m*3 3.9 C 0 km/h
383 06-12-2014 07:50:00 3.9 C 5.94 g/m*3 3.9 C 0 km/h
384 06-12-2014 07:55:00 3.9 C 5.94 g/m*3 3.9 C 0 km/h
385 06-12-2014 08:00:00 4 C 5.98 g/m*3 4 C 0 km/h
386 06-12-2014 08:05:00 4 C 5.98 g/m*3 4 C 1.6 km/h
387 06-12-2014 08:10:00 4 C 5.98 g/m*3 4 C 0 km/h
388 06-12-2014 08:15:00 3.9 C 5.94 g/m*3 3.9 C 0 km/h
389 06-12-2014 08:20:00 4 C 6.04 g/m*3 4 C 3.2 km/h
390 06-12-2014 08:25:00 4 C 6.04 g/m*3 4 C 0 km/h
391 06-12-2014 08:30:00 4.1 C 6.08 g/m*3 4.1 C 3.2 km/h
392 06-12-2014 08:35:00 4.1 C 6.08 g/m*3 4.1 C 3.2 km/h
393 06-12-2014 08:40:00 4.1 C 6.08 g/m*3 4.1 C 1.6 km/h
394 06-12-2014 08:45:00 4.1 C 6.08 g/m*3 4.1 C 3.2 km/h
395 06-12-2014 08:50:00 4.1 C 6.08 g/m*3 4.1 C 1.6 km/h
396 06-12-2014 08:55:00 4.1 C 6.08 g/m*3 4.1 C 1.6 km/h
397 06-12-2014 09:00:00 4.1 C 6.08 g/m*3 4.1 C 3.2 km/h
398 06-12-2014 09:05:00 4.2 C 6.12 g/m*3 4.2 C 1.6 km/h
399 06-12-2014 09:10:00 4.2 C 6.12 g/m*3 4.2 C 3.2 km/h
400 06-12-2014 09:15:00 4.2 C 6.12 g/m*3 4.2 C 3.2 km/h
Sensor: Nr:Datum:Temp:Abs-Feuchte:Windchill:Wind:
Aussen-T/F 401 06-12-2014 09:20:00 4.2 C 6.12 g/m*3 4.2 C 1.6 km/h
402 06-12-2014 09:25:00 4.2 C 6.12 g/m*3 4.2 C 1.6 km/h
403 06-12-2014 09:30:00 4.2 C 6.12 g/m*3 4.2 C 3.2 km/h
404 06-12-2014 09:35:00 4.2 C 6.12 g/m*3 4.2 C 1.6 km/h
405 06-12-2014 09:40:00 4.2 C 6.12 g/m*3 4.2 C 1.6 km/h
406 06-12-2014 09:45:00 4.2 C 6.12 g/m*3 4.2 C 3.2 km/h
407 06-12-2014 09:50:00 4.2 C 6.12 g/m*3 4.2 C 3.2 km/h
408 06-12-2014 09:55:00 4.2 C 6.12 g/m*3 4.2 C 1.6 km/h
409 06-12-2014 10:00:00 4.3 C 6.16 g/m*3 4.3 C 1.6 km/h
410 06-12-2014 10:05:00 4.3 C 6.23 g/m*3 4.3 C 0 km/h
411 06-12-2014 10:10:00 4.3 C 6.16 g/m*3 4.3 C 1.6 km/h
412 06-12-2014 10:15:00 4.3 C 6.16 g/m*3 4.3 C 3.2 km/h
413 06-12-2014 10:20:00 4.3 C 6.16 g/m*3 4.3 C 0 km/h
414 06-12-2014 10:25:00 4.3 C 6.16 g/m*3 4.3 C 1.6 km/h
415 06-12-2014 10:30:00 4.4 C 6.27 g/m*3 4.4 C 3.2 km/h
416 06-12-2014 10:35:00 4.4 C 6.27 g/m*3 4.4 C 1.6 km/h
417 06-12-2014 10:40:00 4.4 C 6.2 g/m*3 4.4 C 1.6 km/h
418 06-12-2014 10:45:00 4.4 C 6.2 g/m*3 4.4 C 0 km/h
419 06-12-2014 10:50:00 4.4 C 6.2 g/m*3 4.4 C 1.6 km/h
420 06-12-2014 10:55:00 4.4 C 6.2 g/m*3 4.4 C 0 km/h
421 06-12-2014 11:00:00 4.4 C 6.2 g/m*3 4.4 C 0 km/h
422 06-12-2014 11:05:00 4.5 C 6.24 g/m*3 4.5 C 1.6 km/h
423 06-12-2014 11:10:00 4.5 C 6.24 g/m*3 4.5 C 0 km/h
424 06-12-2014 11:15:00 4.6 C 6.29 g/m*3 4.6 C 1.6 km/h
425 06-12-2014 11:20:00 4.6 C 6.29 g/m*3 4.6 C 1.6 km/h
Sensor: Nr:Datum:Temp:Abs-Feuchte:Windchill:Wind:
Aussen-T/F 426 06-12-2014 11:25:00 4.6 C 6.29 g/m*3 4.6 C 3.2 km/h
427 06-12-2014 11:30:00 4.6 C 6.29 g/m*3 4.6 C 0 km/h
428 06-12-2014 11:35:00 4.7 C 6.33 g/m*3 4.7 C 1.6 km/h
429 06-12-2014 11:40:00 4.7 C 6.33 g/m*3 4.7 C 1.6 km/h
430 06-12-2014 11:45:00 4.7 C 6.33 g/m*3 4.7 C 1.6 km/h
431 06-12-2014 11:50:00 4.7 C 6.33 g/m*3 4.7 C 1.6 km/h
432 06-12-2014 11:55:00 4.7 C 6.33 g/m*3 4.7 C 1.6 km/h
433 06-12-2014 12:00:00 4.7 C 6.33 g/m*3 4.7 C 0 km/h
434 06-12-2014 12:05:00 4.7 C 6.33 g/m*3 4.7 C 0 km/h
435 06-12-2014 12:10:00 4.8 C 6.37 g/m*3 4.8 C 1.6 km/h
436 06-12-2014 12:15:00 4.8 C 6.44 g/m*3 4.8 C 0 km/h
437 06-12-2014 12:20:00 4.8 C 6.44 g/m*3 4.8 C 0 km/h
438 06-12-2014 12:25:00 4.8 C 6.44 g/m*3 4.8 C 0 km/h
439 06-12-2014 12:30:00 4.8 C 6.44 g/m*3 4.8 C 0 km/h
440 06-12-2014 12:35:00 4.8 C 6.44 g/m*3 4.8 C 1.6 km/h
441 06-12-2014 12:40:00 4.8 C 6.44 g/m*3 4.8 C 3.2 km/h
442 06-12-2014 12:45:00 4.9 C 6.48 g/m*3 4.9 C 0 km/h
443 06-12-2014 12:50:00 4.9 C 6.48 g/m*3 4.9 C 0 km/h
444 06-12-2014 12:55:00 4.9 C 6.48 g/m*3 4.9 C 0 km/h
445 06-12-2014 13:00:00 5 C 6.52 g/m*3 5 C 0 km/h
446 06-12-2014 13:05:00 5 C 6.52 g/m*3 5 C 0 km/h
447 06-12-2014 13:10:00 5.1 C 6.57 g/m*3 5.1 C 1.6 km/h
448 06-12-2014 13:15:00 5.1 C 6.57 g/m*3 5.1 C 0 km/h
449 06-12-2014 13:20:00 5.1 C 6.57 g/m*3 5.1 C 0 km/h
450 06-12-2014 13:25:00 5.1 C 6.57 g/m*3 5.1 C 0 km/h
Sensor: Nr:Datum:Temp:Abs-Feuchte:Windchill:Wind:
Aussen-T/F 451 06-12-2014 13:30:00 5.1 C 6.57 g/m*3 5.1 C 0 km/h
452 06-12-2014 13:35:00 5.2 C 6.61 g/m*3 5.2 C 0 km/h
453 06-12-2014 13:40:00 5.2 C 6.61 g/m*3 5.2 C 0 km/h
454 06-12-2014 13:45:00 5.2 C 6.61 g/m*3 5.2 C 0 km/h
455 06-12-2014 13:50:00 5.2 C 6.61 g/m*3 5.2 C 0 km/h
456 06-12-2014 13:55:00 5.2 C 6.54 g/m*3 5.2 C 0 km/h
457 06-12-2014 14:00:00 5.2 C 6.54 g/m*3 5.2 C 1.6 km/h
458 06-12-2014 14:05:00 5.3 C 6.65 g/m*3 5.3 C 0 km/h
459 06-12-2014 14:10:00 5.3 C 6.58 g/m*3 5.3 C 0 km/h
460 06-12-2014 14:15:00 5.3 C 6.58 g/m*3 5.3 C 1.6 km/h
461 06-12-2014 14:20:00 5.3 C 6.58 g/m*3 5.3 C 0 km/h
462 06-12-2014 14:25:00 5.4 C 6.63 g/m*3 5.4 C 0 km/h
463 06-12-2014 14:30:00 5.4 C 6.63 g/m*3 5.4 C 1.6 km/h
464 06-12-2014 14:35:00 5.4 C 6.63 g/m*3 5.4 C 1.6 km/h
465 06-12-2014 14:40:00 5.4 C 6.63 g/m*3 5.4 C 1.6 km/h
466 06-12-2014 14:45:00 5.4 C 6.63 g/m*3 5.4 C 0 km/h
467 06-12-2014 14:50:00 5.4 C 6.63 g/m*3 5.4 C 1.6 km/h
468 06-12-2014 14:55:00 5.4 C 6.63 g/m*3 5.4 C 0 km/h
469 06-12-2014 15:00:00 5.4 C 6.63 g/m*3 5.4 C 0 km/h
470 06-12-2014 15:05:00 5.4 C 6.63 g/m*3 5.4 C 0 km/h
471 06-12-2014 15:10:00 5.4 C 6.63 g/m*3 5.4 C 0 km/h
472 06-12-2014 15:15:00 5.4 C 6.63 g/m*3 5.4 C 0 km/h
473 06-12-2014 15:20:00 5.4 C 6.63 g/m*3 5.4 C 0 km/h
474 06-12-2014 15:25:00 5.4 C 6.63 g/m*3 5.4 C 0 km/h
475 06-12-2014 15:30:00 5.4 C 6.63 g/m*3 5.4 C 0 km/h
Sensor: Nr:Datum:Temp:Abs-Feuchte:Windchill:Wind:
Aussen-T/F 476 06-12-2014 15:35:00 5.4 C 6.63 g/m*3 5.4 C 0 km/h
477 06-12-2014 15:40:00 5.4 C 6.63 g/m*3 5.4 C 0 km/h
478 06-12-2014 15:45:00 5.4 C 6.63 g/m*3 5.4 C 0 km/h
479 06-12-2014 15:50:00 5.4 C 6.63 g/m*3 5.4 C 0 km/h
480 06-12-2014 15:55:00 5.4 C 6.63 g/m*3 5.4 C 0 km/h
481 06-12-2014 16:00:00 5.4 C 6.63 g/m*3 5.4 C 0 km/h
482 06-12-2014 16:05:00 5.4 C 6.63 g/m*3 5.4 C 1.6 km/h
483 06-12-2014 16:10:00 5.4 C 6.63 g/m*3 5.4 C 0 km/h
484 06-12-2014 16:15:00 5.4 C 6.63 g/m*3 5.4 C 0 km/h
485 06-12-2014 16:20:00 5.4 C 6.63 g/m*3 5.4 C 0 km/h
486 06-12-2014 16:25:00 5.4 C 6.63 g/m*3 5.4 C 0 km/h
487 06-12-2014 16:30:00 5.4 C 6.63 g/m*3 5.4 C 0 km/h
488 06-12-2014 16:35:00 5.4 C 6.63 g/m*3 5.4 C 0 km/h
489 06-12-2014 16:40:00 5.4 C 6.63 g/m*3 5.4 C 0 km/h
490 06-12-2014 16:45:00 5.4 C 6.63 g/m*3 5.4 C 0 km/h
491 06-12-2014 16:50:00 5.4 C 6.63 g/m*3 5.4 C 0 km/h
492 06-12-2014 16:55:00 5.4 C 6.63 g/m*3 5.4 C 0 km/h
493 06-12-2014 17:00:00 5.4 C 6.63 g/m*3 5.4 C 0 km/h
494 06-12-2014 17:05:00 5.4 C 6.63 g/m*3 5.4 C 0 km/h
495 06-12-2014 17:10:00 5.3 C 6.58 g/m*3 5.3 C 0 km/h
496 06-12-2014 17:15:00 5.3 C 6.58 g/m*3 5.3 C 0 km/h
497 06-12-2014 17:20:00 5.3 C 6.58 g/m*3 5.3 C 0 km/h
498 06-12-2014 17:25:00 5.3 C 6.58 g/m*3 5.3 C 0 km/h
499 06-12-2014 17:30:00 5.3 C 6.58 g/m*3 5.3 C 0 km/h
500 06-12-2014 17:35:00 5.2 C 6.54 g/m*3 5.2 C 0 km/h
Sensor: Nr:Datum:Temp:Abs-Feuchte:Windchill:Wind:
Aussen-T/F 501 06-12-2014 17:40:00 5.2 C 6.54 g/m*3 5.2 C 0 km/h
502 06-12-2014 17:45:00 5.2 C 6.61 g/m*3 5.2 C 0 km/h
503 06-12-2014 17:50:00 5.2 C 6.61 g/m*3 5.2 C 0 km/h
504 06-12-2014 17:55:00 5.2 C 6.61 g/m*3 5.2 C 0 km/h
505 06-12-2014 18:00:00 5.3 C 6.65 g/m*3 5.3 C 0 km/h
506 06-12-2014 18:05:00 5.3 C 6.65 g/m*3 5.3 C 0 km/h
507 06-12-2014 18:10:00 5.3 C 6.65 g/m*3 5.3 C 0 km/h
508 06-12-2014 18:15:00 5.3 C 6.65 g/m*3 5.3 C 1.6 km/h
509 06-12-2014 18:20:00 5.3 C 6.65 g/m*3 5.3 C 0 km/h
510 06-12-2014 18:25:00 5.3 C 6.65 g/m*3 5.3 C 0 km/h
511 06-12-2014 18:30:00 5.3 C 6.65 g/m*3 5.3 C 0 km/h
512 06-12-2014 18:35:00 5.4 C 6.7 g/m*3 5.4 C 0 km/h
513 06-12-2014 18:40:00 5.3 C 6.65 g/m*3 5.3 C 0 km/h
514 06-12-2014 18:45:00 5.4 C 6.7 g/m*3 5.4 C 0 km/h
515 06-12-2014 18:50:00 5.4 C 6.7 g/m*3 5.4 C 0 km/h
516 06-12-2014 18:55:00 5.4 C 6.7 g/m*3 5.4 C 0 km/h
517 06-12-2014 19:00:00 5.4 C 6.7 g/m*3 5.4 C 0 km/h
518 06-12-2014 19:05:00 5.4 C 6.7 g/m*3 5.4 C 0 km/h
519 06-12-2014 19:10:00 5.4 C 6.7 g/m*3 5.4 C 0 km/h
520 06-12-2014 19:15:00 5.4 C 6.7 g/m*3 5.4 C 0 km/h
521 06-12-2014 19:20:00 5.4 C 6.7 g/m*3 5.4 C 0 km/h
522 06-12-2014 19:25:00 5.4 C 6.7 g/m*3 5.4 C 0 km/h
523 06-12-2014 19:30:00 5.4 C 6.7 g/m*3 5.4 C 0 km/h
524 06-12-2014 19:35:00 5.4 C 6.7 g/m*3 5.4 C 0 km/h
525 06-12-2014 19:40:00 5.4 C 6.7 g/m*3 5.4 C 0 km/h
Sensor: Nr:Datum:Temp:Abs-Feuchte:Windchill:Wind:
Aussen-T/F 526 06-12-2014 19:45:00 5.4 C 6.7 g/m*3 5.4 C 0 km/h
527 06-12-2014 19:50:00 5.4 C 6.7 g/m*3 5.4 C 3.2 km/h
528 06-12-2014 19:55:00 5.4 C 6.7 g/m*3 5.4 C 0 km/h
529 06-12-2014 20:00:00 5.4 C 6.7 g/m*3 5.4 C 3.2 km/h
530 06-12-2014 20:05:00 5.4 C 6.7 g/m*3 5.4 C 4.8 km/h
531 06-12-2014 20:10:00 5.4 C 6.7 g/m*3 5.4 C 3.2 km/h
532 06-12-2014 20:15:00 5.4 C 6.63 g/m*3 5.4 C 4.8 km/h
533 06-12-2014 20:20:00 5.4 C 6.63 g/m*3 5.4 C 0 km/h
534 06-12-2014 20:25:00 5.4 C 6.63 g/m*3 5.4 C 0 km/h
535 06-12-2014 20:30:00 5.4 C 6.63 g/m*3 5.4 C 1.6 km/h
536 06-12-2014 20:35:00 5.4 C 6.63 g/m*3 5.4 C 0 km/h
537 06-12-2014 20:40:00 5.3 C 6.58 g/m*3 5.3 C 1.6 km/h
538 06-12-2014 20:45:00 5.3 C 6.58 g/m*3 5.3 C 0 km/h
539 06-12-2014 20:50:00 5.3 C 6.58 g/m*3 5.3 C 3.2 km/h
540 06-12-2014 20:55:00 5.3 C 6.58 g/m*3 5.3 C 3.2 km/h
541 06-12-2014 21:00:00 5.3 C 6.52 g/m*3 5.3 C 1.6 km/h
542 06-12-2014 21:05:00 5.4 C 6.56 g/m*3 5.4 C 4.8 km/h
543 06-12-2014 21:10:00 5.4 C 6.56 g/m*3 5.4 C 3.2 km/h
544 06-12-2014 21:15:00 5.4 C 6.56 g/m*3 5.4 C 3.2 km/h
545 06-12-2014 21:20:00 5.4 C 6.56 g/m*3 5.4 C 0 km/h
546 06-12-2014 21:25:00 5.3 C 6.52 g/m*3 5.3 C 0 km/h
547 06-12-2014 21:30:00 5.3 C 6.52 g/m*3 5.3 C 0 km/h
548 06-12-2014 21:35:00 5.3 C 6.52 g/m*3 5.3 C 0 km/h
549 06-12-2014 21:40:00 5.3 C 6.58 g/m*3 5.3 C 3.2 km/h
550 06-12-2014 21:45:00 5.2 C 6.54 g/m*3 5.2 C 1.6 km/h
Sensor: Nr:Datum:Temp:Abs-Feuchte:Windchill:Wind:
Aussen-T/F 551 06-12-2014 21:50:00 5.2 C 6.54 g/m*3 5.2 C 3.2 km/h
552 06-12-2014 21:55:00 5.2 C 6.54 g/m*3 5.2 C 3.2 km/h
553 06-12-2014 22:00:00 5.2 C 6.54 g/m*3 5.2 C 3.2 km/h
554 06-12-2014 22:05:00 5.2 C 6.54 g/m*3 5.2 C 0 km/h
555 06-12-2014 22:10:00 5.1 C 6.5 g/m*3 5.1 C 1.6 km/h
556 06-12-2014 22:15:00 5.1 C 6.5 g/m*3 5.1 C 1.6 km/h
557 06-12-2014 22:20:00 5.1 C 6.5 g/m*3 5.1 C 0 km/h
558 06-12-2014 22:25:00 5.1 C 6.5 g/m*3 5.1 C 0 km/h
559 06-12-2014 22:30:00 5.1 C 6.5 g/m*3 5.1 C 0 km/h
560 06-12-2014 22:35:00 5.1 C 6.5 g/m*3 5.1 C 1.6 km/h
561 06-12-2014 22:40:00 5.1 C 6.5 g/m*3 5.1 C 1.6 km/h
562 06-12-2014 22:45:00 5 C 6.46 g/m*3 5 C 1.6 km/h
563 06-12-2014 22:50:00 5.1 C 6.5 g/m*3 5.1 C 0 km/h
564 06-12-2014 22:55:00 5.1 C 6.5 g/m*3 5.1 C 0 km/h
565 06-12-2014 23:00:00 5.1 C 6.5 g/m*3 5.1 C 0 km/h
566 06-12-2014 23:05:00 5 C 6.46 g/m*3 5 C 0 km/h
567 06-12-2014 23:10:00 5 C 6.46 g/m*3 5 C 0 km/h
568 06-12-2014 23:15:00 4.9 C 6.41 g/m*3 4.9 C 0 km/h
569 06-12-2014 23:20:00 4.9 C 6.41 g/m*3 4.9 C 0 km/h
570 06-12-2014 23:25:00 4.9 C 6.41 g/m*3 4.9 C 0 km/h
571 06-12-2014 23:30:00 4.9 C 6.41 g/m*3 4.9 C 0 km/h
572 06-12-2014 23:35:00 4.9 C 6.41 g/m*3 4.9 C 0 km/h
573 06-12-2014 23:40:00 4.9 C 6.41 g/m*3 4.9 C 0 km/h
574 06-12-2014 23:45:00 4.8 C 6.37 g/m*3 4.8 C 0 km/h
575 06-12-2014 23:50:00 4.8 C 6.37 g/m*3 4.8 C 0 km/h
Sensor: Nr:Datum:Temp:Abs-Feuchte:Windchill:Wind:
Aussen-T/F 576 06-12-2014 23:55:00 4.8 C 6.37 g/m*3 4.8 C 0 km/h
577 07-12-2014 00:00:00 4.8 C 6.37 g/m*3 4.8 C 0 km/h
578 07-12-2014 00:05:00 4.8 C 6.37 g/m*3 4.8 C 1.6 km/h
579 07-12-2014 00:10:00 4.8 C 6.37 g/m*3 4.8 C 0 km/h
580 07-12-2014 00:15:00 4.8 C 6.37 g/m*3 4.8 C 1.6 km/h
581 07-12-2014 00:20:00 4.8 C 6.37 g/m*3 4.8 C 1.6 km/h
582 07-12-2014 00:25:00 4.8 C 6.37 g/m*3 4.8 C 3.2 km/h
583 07-12-2014 00:30:00 4.8 C 6.37 g/m*3 4.8 C 0 km/h
584 07-12-2014 00:35:00 4.8 C 6.37 g/m*3 4.8 C 0 km/h
585 07-12-2014 00:40:00 4.8 C 6.37 g/m*3 4.8 C 0 km/h
586 07-12-2014 00:45:00 4.8 C 6.37 g/m*3 4.8 C 0 km/h
587 07-12-2014 00:50:00 4.8 C 6.37 g/m*3 4.8 C 0 km/h
588 07-12-2014 00:55:00 4.8 C 6.37 g/m*3 4.8 C 0 km/h
589 07-12-2014 01:00:00 4.7 C 6.33 g/m*3 4.7 C 0 km/h
590 07-12-2014 01:05:00 4.7 C 6.33 g/m*3 4.7 C 0 km/h
591 07-12-2014 01:10:00 4.7 C 6.33 g/m*3 4.7 C 0 km/h
592 07-12-2014 01:15:00 4.6 C 6.29 g/m*3 4.6 C 0 km/h
593 07-12-2014 01:20:00 4.6 C 6.29 g/m*3 4.6 C 0 km/h
594 07-12-2014 01:25:00 4.4 C 6.2 g/m*3 4.4 C 0 km/h
595 07-12-2014 01:30:00 4.2 C 6.06 g/m*3 4.2 C 0 km/h
596 07-12-2014 01:35:00 3.9 C 5.94 g/m*3 3.9 C 1.6 km/h
597 07-12-2014 01:40:00 3.8 C 5.9 g/m*3 3.8 C 1.6 km/h
598 07-12-2014 01:45:00 3.4 C 5.74 g/m*3 3.4 C 1.6 km/h
599 07-12-2014 01:50:00 3.3 C 5.76 g/m*3 3.3 C 3.2 km/h
600 07-12-2014 01:55:00 3.2 C 5.72 g/m*3 3.2 C 4.8 km/h
Sensor: Nr:Datum:Temp:Abs-Feuchte:Windchill:Wind:
Aussen-T/F 601 07-12-2014 02:00:00 3.1 C 5.69 g/m*3 3.1 C 3.2 km/h
602 07-12-2014 02:05:00 3 C 5.65 g/m*3 3 C 3.2 km/h
603 07-12-2014 02:10:00 2.9 C 5.61 g/m*3 2.9 C 1.6 km/h
604 07-12-2014 02:15:00 2.8 C 5.57 g/m*3 2.8 C 1.6 km/h
605 07-12-2014 02:20:00 2.7 C 5.54 g/m*3 2.7 C 1.6 km/h
606 07-12-2014 02:25:00 2.7 C 5.59 g/m*3 2.7 C 0 km/h
607 07-12-2014 02:30:00 2.8 C 5.63 g/m*3 2.8 C 4.8 km/h
608 07-12-2014 02:35:00 3 C 5.77 g/m*3 3 C 3.2 km/h
609 07-12-2014 02:40:00 3.1 C 5.81 g/m*3 3.1 C 3.2 km/h
610 07-12-2014 02:45:00 3.3 C 5.88 g/m*3 3.3 C 3.2 km/h
611 07-12-2014 02:50:00 3.3 C 5.88 g/m*3 3.3 C 0 km/h
612 07-12-2014 02:55:00 3.3 C 5.88 g/m*3 3.3 C 1.6 km/h
613 07-12-2014 03:00:00 3.4 C 5.92 g/m*3 3.4 C 0 km/h
614 07-12-2014 03:05:00 3.4 C 5.92 g/m*3 3.4 C 0 km/h
615 07-12-2014 03:10:00 3.4 C 5.92 g/m*3 3.4 C 0 km/h
616 07-12-2014 03:15:00 3.4 C 5.92 g/m*3 3.4 C 0 km/h
617 07-12-2014 03:20:00 3.4 C 5.92 g/m*3 3.4 C 0 km/h
618 07-12-2014 03:25:00 3.4 C 5.92 g/m*3 3.4 C 0 km/h
619 07-12-2014 03:30:00 3.5 C 5.96 g/m*3 3.5 C 0 km/h
620 07-12-2014 03:35:00 3.5 C 5.96 g/m*3 3.5 C 1.6 km/h
621 07-12-2014 03:40:00 3.5 C 5.96 g/m*3 3.5 C 0 km/h
622 07-12-2014 03:45:00 3.5 C 5.96 g/m*3 3.5 C 0 km/h
623 07-12-2014 03:50:00 3.4 C 5.92 g/m*3 3.4 C 0 km/h
624 07-12-2014 03:55:00 3.4 C 5.92 g/m*3 3.4 C 0 km/h
625 07-12-2014 04:00:00 3.4 C 5.92 g/m*3 3.4 C 0 km/h
Sensor: Nr:Datum:Temp:Abs-Feuchte:Windchill:Wind:
Aussen-T/F 626 07-12-2014 04:05:00 3.4 C 5.92 g/m*3 3.4 C 0 km/h
627 07-12-2014 04:10:00 3.4 C 5.92 g/m*3 3.4 C 0 km/h
628 07-12-2014 04:15:00 3.4 C 5.92 g/m*3 3.4 C 0 km/h
629 07-12-2014 04:20:00 3.5 C 5.96 g/m*3 3.5 C 0 km/h
630 07-12-2014 04:25:00 3.5 C 5.96 g/m*3 3.5 C 0 km/h
631 07-12-2014 04:30:00 3.6 C 6 g/m*3 3.6 C 0 km/h
632 07-12-2014 04:35:00 3.6 C 6 g/m*3 3.6 C 0 km/h
633 07-12-2014 04:40:00 3.6 C 6 g/m*3 3.6 C 0 km/h
634 07-12-2014 04:45:00 3.6 C 6 g/m*3 3.6 C 0 km/h
635 07-12-2014 04:50:00 3.6 C 6 g/m*3 3.6 C 0 km/h
636 07-12-2014 04:55:00 3.6 C 6 g/m*3 3.6 C 0 km/h
637 07-12-2014 05:00:00 3.6 C 6 g/m*3 3.6 C 0 km/h
638 07-12-2014 05:05:00 3.5 C 5.96 g/m*3 3.5 C 0 km/h
639 07-12-2014 05:10:00 3.6 C 6 g/m*3 3.6 C 0 km/h
640 07-12-2014 05:15:00 3.6 C 6 g/m*3 3.6 C 0 km/h
641 07-12-2014 05:20:00 3.6 C 6 g/m*3 3.6 C 0 km/h
642 07-12-2014 05:25:00 3.6 C 6 g/m*3 3.6 C 0 km/h
643 07-12-2014 05:30:00 3.6 C 6 g/m*3 3.6 C 0 km/h
644 07-12-2014 05:35:00 3.6 C 6 g/m*3 3.6 C 0 km/h
645 07-12-2014 05:40:00 3.6 C 6 g/m*3 3.6 C 0 km/h
646 07-12-2014 05:45:00 3.6 C 6 g/m*3 3.6 C 0 km/h
647 07-12-2014 05:50:00 3.6 C 6 g/m*3 3.6 C 0 km/h
648 07-12-2014 05:55:00 3.6 C 6 g/m*3 3.6 C 3.2 km/h
649 07-12-2014 06:00:00 3.6 C 6 g/m*3 3.6 C 0 km/h
650 07-12-2014 06:05:00 3.6 C 6 g/m*3 3.6 C 0 km/h
Sensor: Nr:Datum:Temp:Abs-Feuchte:Windchill:Wind:
Aussen-T/F 651 07-12-2014 06:10:00 3.6 C 6 g/m*3 3.6 C 1.6 km/h
652 07-12-2014 06:15:00 3.6 C 6 g/m*3 3.6 C 0 km/h
653 07-12-2014 06:20:00 3.6 C 6 g/m*3 3.6 C 0 km/h
654 07-12-2014 06:25:00 3.6 C 6 g/m*3 3.6 C 0 km/h
655 07-12-2014 06:30:00 3.6 C 6 g/m*3 3.6 C 0 km/h
656 07-12-2014 06:35:00 3.6 C 6 g/m*3 3.6 C 1.6 km/h
657 07-12-2014 06:40:00 3.7 C 6.04 g/m*3 3.7 C 1.6 km/h
658 07-12-2014 06:45:00 3.7 C 6.04 g/m*3 3.7 C 0 km/h
659 07-12-2014 06:50:00 3.7 C 6.04 g/m*3 3.7 C 0 km/h
660 07-12-2014 06:55:00 3.7 C 6.04 g/m*3 3.7 C 0 km/h
661 07-12-2014 07:00:00 3.7 C 6.04 g/m*3 3.7 C 0 km/h
662 07-12-2014 07:05:00 3.7 C 6.04 g/m*3 3.7 C 0 km/h
663 07-12-2014 07:10:00 3.7 C 6.04 g/m*3 3.7 C 0 km/h
664 07-12-2014 07:15:00 3.8 C 6.09 g/m*3 3.8 C 0 km/h
665 07-12-2014 07:20:00 3.8 C 6.09 g/m*3 3.8 C 0 km/h
666 07-12-2014 07:25:00 3.8 C 6.09 g/m*3 3.8 C 0 km/h
667 07-12-2014 07:30:00 3.8 C 6.09 g/m*3 3.8 C 0 km/h
668 07-12-2014 07:35:00 3.8 C 6.09 g/m*3 3.8 C 0 km/h
669 07-12-2014 07:40:00 3.8 C 6.09 g/m*3 3.8 C 0 km/h
670 07-12-2014 07:45:00 3.8 C 6.09 g/m*3 3.8 C 0 km/h
671 07-12-2014 07:50:00 3.8 C 6.02 g/m*3 3.8 C 0 km/h
672 07-12-2014 07:55:00 3.8 C 6.09 g/m*3 3.8 C 0 km/h
673 07-12-2014 08:00:00 3.8 C 6.02 g/m*3 3.8 C 0 km/h
674 07-12-2014 08:05:00 3.8 C 6.02 g/m*3 3.8 C 0 km/h
675 07-12-2014 08:10:00 3.8 C 6.09 g/m*3 3.8 C 1.6 km/h
Sensor: Nr:Datum:Temp:Abs-Feuchte:Windchill:Wind:
Aussen-T/F 676 07-12-2014 08:15:00 3.8 C 6.09 g/m*3 3.8 C 1.6 km/h
677 07-12-2014 08:20:00 3.8 C 6.02 g/m*3 3.8 C 4.8 km/h
678 07-12-2014 08:25:00 3.8 C 6.02 g/m*3 3.8 C 3.2 km/h
679 07-12-2014 08:30:00 3.8 C 6.02 g/m*3 3.8 C 3.2 km/h
680 07-12-2014 08:35:00 3.7 C 5.98 g/m*3 3.7 C 1.6 km/h
681 07-12-2014 08:40:00 3.7 C 5.98 g/m*3 3.7 C 0 km/h
682 07-12-2014 08:45:00 3.7 C 5.98 g/m*3 3.7 C 1.6 km/h
683 07-12-2014 08:50:00 3.7 C 5.98 g/m*3 3.7 C 0 km/h
684 07-12-2014 08:55:00 3.7 C 5.98 g/m*3 3.7 C 4.8 km/h
685 07-12-2014 09:00:00 3.7 C 5.98 g/m*3 3.7 C 4.8 km/h
686 07-12-2014 09:05:00 3.7 C 5.98 g/m*3 3.7 C 1.6 km/h
687 07-12-2014 09:10:00 3.8 C 6.02 g/m*3 3.8 C 0 km/h
688 07-12-2014 09:15:00 3.8 C 6.02 g/m*3 3.8 C 0 km/h
689 07-12-2014 09:20:00 3.9 C 6.06 g/m*3 3.9 C 1.6 km/h
690 07-12-2014 09:25:00 3.9 C 6.06 g/m*3 2.32 C 6.4 km/h
691 07-12-2014 09:30:00 3.8 C 6.02 g/m*3 1.29 C 9.7 km/h
692 07-12-2014 09:35:00 3.9 C 6.06 g/m*3 3.9 C 1.6 km/h
693 07-12-2014 09:40:00 3.9 C 6.06 g/m*3 3.9 C 3.2 km/h
694 07-12-2014 09:45:00 3.9 C 6 g/m*3 3.9 C 1.6 km/h
695 07-12-2014 09:50:00 4.1 C 6.08 g/m*3 4.1 C 1.6 km/h
696 07-12-2014 09:55:00 4.1 C 6.08 g/m*3 2.55 C 6.4 km/h
697 07-12-2014 10:00:00 4.2 C 6.12 g/m*3 2.67 C 6.4 km/h
698 07-12-2014 10:05:00 4.3 C 6.16 g/m*3 2.29 C 8.1 km/h
699 07-12-2014 10:10:00 4.3 C 6.1 g/m*3 2.29 C 8.1 km/h
700 07-12-2014 10:15:00 4.4 C 6.14 g/m*3 2.4 C 8.1 km/h
Sensor: Nr:Datum:Temp:Abs-Feuchte:Windchill:Wind:
Aussen-T/F 701 07-12-2014 10:20:00 4.5 C 6.18 g/m*3 4.5 C 4.8 km/h
702 07-12-2014 10:25:00 4.5 C 6.18 g/m*3 4.5 C 3.2 km/h
703 07-12-2014 10:30:00 4.5 C 6.11 g/m*3 4.5 C 3.2 km/h
704 07-12-2014 10:35:00 4.4 C 6.07 g/m*3 4.4 C 0 km/h
705 07-12-2014 10:40:00 4.3 C 6.03 g/m*3 4.3 C 0 km/h
706 07-12-2014 10:45:00 4.2 C 5.99 g/m*3 4.2 C 1.6 km/h
707 07-12-2014 10:50:00 4.1 C 6.02 g/m*3 4.1 C 1.6 km/h
708 07-12-2014 10:55:00 3.9 C 5.94 g/m*3 3.9 C 1.6 km/h
709 07-12-2014 11:00:00 3.8 C 5.9 g/m*3 3.8 C 3.2 km/h
710 07-12-2014 11:05:00 3.7 C 5.86 g/m*3 3.7 C 3.2 km/h
711 07-12-2014 11:10:00 3.7 C 5.92 g/m*3 3.7 C 1.6 km/h
712 07-12-2014 11:15:00 3.6 C 5.88 g/m*3 3.6 C 3.2 km/h
713 07-12-2014 11:20:00 3.7 C 5.92 g/m*3 3.7 C 3.2 km/h
714 07-12-2014 11:25:00 3.7 C 5.92 g/m*3 3.7 C 3.2 km/h
715 07-12-2014 11:30:00 3.7 C 5.92 g/m*3 3.7 C 3.2 km/h
716 07-12-2014 11:35:00 3.8 C 5.96 g/m*3 3.8 C 3.2 km/h
717 07-12-2014 11:40:00 3.8 C 5.96 g/m*3 3.8 C 3.2 km/h
718 07-12-2014 11:45:00 3.8 C 5.96 g/m*3 3.8 C 3.2 km/h
719 07-12-2014 11:50:00 3.8 C 5.96 g/m*3 3.8 C 4.8 km/h
720 07-12-2014 11:55:00 3.8 C 5.96 g/m*3 3.8 C 1.6 km/h
721 07-12-2014 12:00:00 3.9 C 6 g/m*3 3.9 C 3.2 km/h
722 07-12-2014 12:05:00 3.9 C 6 g/m*3 3.9 C 3.2 km/h
723 07-12-2014 12:10:00 3.9 C 6 g/m*3 3.9 C 1.6 km/h
724 07-12-2014 12:15:00 4 C 6.04 g/m*3 4 C 4.8 km/h
725 07-12-2014 12:20:00 4.1 C 6.08 g/m*3 4.1 C 3.2 km/h
Sensor: Nr:Datum:Temp:Abs-Feuchte:Windchill:Wind:
Aussen-T/F 726 07-12-2014 12:25:00 4.3 C 6.1 g/m*3 2.78 C 6.4 km/h
727 07-12-2014 12:30:00 4.5 C 6.11 g/m*3 4.5 C 4.8 km/h
728 07-12-2014 12:35:00 4.7 C 6.13 g/m*3 4.7 C 3.2 km/h
729 07-12-2014 12:40:00 4.9 C 6.14 g/m*3 2.61 C 9.7 km/h
730 07-12-2014 12:45:00 5.2 C 6.13 g/m*3 3.34 C 8.1 km/h
731 07-12-2014 12:50:00 5.3 C 6.17 g/m*3 5.3 C 4.8 km/h
732 07-12-2014 12:55:00 5.4 C 6.21 g/m*3 5.4 C 4.8 km/h
733 07-12-2014 13:00:00 5.4 C 6.21 g/m*3 5.4 C 4.8 km/h
734 07-12-2014 13:05:00 5.5 C 6.11 g/m*3 2.7 C 12.9 km/h
735 07-12-2014 13:10:00 5.6 C 6.15 g/m*3 3.81 C 8.1 km/h
736 07-12-2014 13:15:00 5.5 C 6.04 g/m*3 2.7 C 12.9 km/h
737 07-12-2014 13:20:00 5.4 C 6 g/m*3 5.4 C 3.2 km/h
738 07-12-2014 13:25:00 5.4 C 5.93 g/m*3 5.4 C 4.8 km/h
739 07-12-2014 13:30:00 5.5 C 5.76 g/m*3 2.7 C 12.9 km/h
740 07-12-2014 13:35:00 5.7 C 5.91 g/m*3 2.69 C 14.5 km/h
741 07-12-2014 13:40:00 5.8 C 5.87 g/m*3 2.16 C 19.3 km/h
742 07-12-2014 13:45:00 5.8 C 5.87 g/m*3 2.81 C 14.5 km/h
743 07-12-2014 13:50:00 5.8 C 5.87 g/m*3 2.81 C 14.5 km/h
744 07-12-2014 13:55:00 5.8 C 5.8 g/m*3 2.36 C 17.7 km/h
745 07-12-2014 14:00:00 5.8 C 5.87 g/m*3 2.58 C 16.1 km/h
746 07-12-2014 14:05:00 5.8 C 5.87 g/m*3 2.36 C 17.7 km/h
747 07-12-2014 14:10:00 5.8 C 5.87 g/m*3 2.58 C 16.1 km/h
748 07-12-2014 14:15:00 5.8 C 5.87 g/m*3 1.8 C 22.5 km/h
749 07-12-2014 14:20:00 5.7 C 5.84 g/m*3 2.03 C 19.3 km/h
750 07-12-2014 14:25:00 5.7 C 5.84 g/m*3 2.24 C 17.7 km/h
Sensor: Nr:Datum:Temp:Abs-Feuchte:Windchill:Wind:
Aussen-T/F 751 07-12-2014 14:30:00 5.7 C 5.84 g/m*3 2.24 C 17.7 km/h
752 07-12-2014 14:35:00 5.6 C 5.87 g/m*3 2.57 C 14.5 km/h
753 07-12-2014 14:40:00 5.6 C 5.87 g/m*3 1.72 C 20.9 km/h
754 07-12-2014 14:45:00 5.7 C 5.91 g/m*3 2.69 C 14.5 km/h
755 07-12-2014 14:50:00 5.7 C 5.91 g/m*3 2.45 C 16.1 km/h
756 07-12-2014 14:55:00 5.6 C 5.87 g/m*3 1.91 C 19.3 km/h
757 07-12-2014 15:00:00 5.6 C 5.94 g/m*3 2.83 C 12.9 km/h
758 07-12-2014 15:05:00 5.6 C 5.94 g/m*3 1.54 C 22.5 km/h
759 07-12-2014 15:10:00 5.5 C 5.83 g/m*3 1.25 C 24.1 km/h
760 07-12-2014 15:15:00 5.4 C 5.86 g/m*3 2.32 C 14.5 km/h
761 07-12-2014 15:20:00 5.4 C 5.86 g/m*3 2.58 C 12.9 km/h
762 07-12-2014 15:25:00 5.4 C 5.86 g/m*3 2.87 C 11.3 km/h
763 07-12-2014 15:30:00 5.3 C 5.82 g/m*3 1.96 C 16.1 km/h
764 07-12-2014 15:35:00 5.3 C 5.82 g/m*3 2.2 C 14.5 km/h
765 07-12-2014 15:40:00 5.3 C 5.89 g/m*3 2.46 C 12.9 km/h
766 07-12-2014 15:45:00 5.3 C 5.89 g/m*3 2.75 C 11.3 km/h
767 07-12-2014 15:50:00 5.3 C 5.89 g/m*3 2.2 C 14.5 km/h
768 07-12-2014 15:55:00 5.2 C 5.85 g/m*3 2.07 C 14.5 km/h
769 07-12-2014 16:00:00 5.2 C 5.85 g/m*3 1.83 C 16.1 km/h
770 07-12-2014 16:05:00 5.3 C 5.89 g/m*3 2.46 C 12.9 km/h
771 07-12-2014 16:10:00 5.3 C 5.89 g/m*3 1.74 C 17.7 km/h
772 07-12-2014 16:15:00 5.3 C 5.89 g/m*3 1.96 C 16.1 km/h
773 07-12-2014 16:20:00 5.3 C 5.89 g/m*3 2.46 C 12.9 km/h
774 07-12-2014 16:25:00 5.3 C 5.89 g/m*3 1.96 C 16.1 km/h
775 07-12-2014 16:30:00 5.4 C 5.93 g/m*3 1.86 C 17.7 km/h
Sensor: Nr:Datum:Temp:Abs-Feuchte:Windchill:Wind:
Aussen-T/F 776 07-12-2014 16:35:00 5.4 C 5.93 g/m*3 2.58 C 12.9 km/h
777 07-12-2014 16:40:00 5.4 C 5.93 g/m*3 2.08 C 16.1 km/h
778 07-12-2014 16:45:00 5.5 C 5.9 g/m*3 2.2 C 16.1 km/h
779 07-12-2014 16:50:00 5.5 C 5.9 g/m*3 2.99 C 11.3 km/h
780 07-12-2014 16:55:00 5.6 C 5.94 g/m*3 2.33 C 16.1 km/h
781 07-12-2014 17:00:00 5.6 C 5.87 g/m*3 2.83 C 12.9 km/h
782 07-12-2014 17:05:00 5.6 C 5.87 g/m*3 1.72 C 20.9 km/h
783 07-12-2014 17:10:00 5.6 C 5.87 g/m*3 3.11 C 11.3 km/h
784 07-12-2014 17:15:00 5.6 C 5.87 g/m*3 2.11 C 17.7 km/h
785 07-12-2014 17:20:00 5.6 C 5.87 g/m*3 3.11 C 11.3 km/h
786 07-12-2014 17:25:00 5.6 C 5.87 g/m*3 2.57 C 14.5 km/h
787 07-12-2014 17:30:00 5.6 C 5.94 g/m*3 2.33 C 16.1 km/h
788 07-12-2014 17:35:00 5.5 C 5.97 g/m*3 1.25 C 24.1 km/h
789 07-12-2014 17:40:00 5.3 C 5.96 g/m*3 1.74 C 17.7 km/h
790 07-12-2014 17:45:00 5.1 C 5.95 g/m*3 1.71 C 16.1 km/h
791 07-12-2014 17:50:00 4.9 C 5.94 g/m*3 1.7 C 14.5 km/h
792 07-12-2014 17:55:00 4.8 C 5.97 g/m*3 1.58 C 14.5 km/h
793 07-12-2014 18:00:00 4.8 C 5.97 g/m*3 1.58 C 14.5 km/h
794 07-12-2014 18:05:00 4.7 C 6 g/m*3 2.37 C 9.7 km/h
795 07-12-2014 18:10:00 4.6 C 5.96 g/m*3 1.91 C 11.3 km/h
796 07-12-2014 18:15:00 4.5 C 5.98 g/m*3 0.74 C 17.7 km/h
797 07-12-2014 18:20:00 4.5 C 5.98 g/m*3 1.79 C 11.3 km/h
798 07-12-2014 18:25:00 4.4 C 5.94 g/m*3 2.01 C 9.7 km/h
799 07-12-2014 18:30:00 4.4 C 5.94 g/m*3 2.01 C 9.7 km/h
800 07-12-2014 18:35:00 4.4 C 5.94 g/m*3 4.4 C 4.8 km/h
Sensor: Nr:Datum:Temp:Abs-Feuchte:Windchill:Wind:
Aussen-T/F 801 07-12-2014 18:40:00 4.3 C 5.97 g/m*3 4.3 C 3.2 km/h
802 07-12-2014 18:45:00 4.3 C 5.97 g/m*3 4.3 C 4.8 km/h
803 07-12-2014 18:50:00 4.3 C 5.97 g/m*3 4.3 C 3.2 km/h
804 07-12-2014 18:55:00 4.3 C 6.03 g/m*3 4.3 C 4.8 km/h
805 07-12-2014 19:00:00 4.3 C 5.97 g/m*3 4.3 C 3.2 km/h
806 07-12-2014 19:05:00 4.3 C 5.97 g/m*3 4.3 C 3.2 km/h
807 07-12-2014 19:10:00 4.3 C 5.97 g/m*3 4.3 C 4.8 km/h
808 07-12-2014 19:15:00 4.3 C 5.97 g/m*3 4.3 C 1.6 km/h
809 07-12-2014 19:20:00 4.3 C 5.97 g/m*3 4.3 C 3.2 km/h
810 07-12-2014 19:25:00 4.2 C 5.93 g/m*3 4.2 C 3.2 km/h
811 07-12-2014 19:30:00 4.2 C 5.93 g/m*3 2.17 C 8.1 km/h
812 07-12-2014 19:35:00 4.2 C 5.86 g/m*3 0.84 C 14.5 km/h
813 07-12-2014 19:40:00 4.3 C 5.9 g/m*3 1.89 C 9.7 km/h
814 07-12-2014 19:45:00 4.3 C 5.9 g/m*3 1.89 C 9.7 km/h
815 07-12-2014 19:50:00 4.3 C 5.9 g/m*3 1.89 C 9.7 km/h
816 07-12-2014 19:55:00 4.2 C 5.86 g/m*3 0.84 C 14.5 km/h
817 07-12-2014 20:00:00 4.2 C 5.93 g/m*3 1.77 C 9.7 km/h
818 07-12-2014 20:05:00 4.2 C 5.93 g/m*3 0.15 C 19.3 km/h
819 07-12-2014 20:10:00 4.2 C 5.93 g/m*3 0.36 C 17.7 km/h
820 07-12-2014 20:15:00 4.2 C 5.86 g/m*3 0.36 C 17.7 km/h
821 07-12-2014 20:20:00 4.2 C 5.93 g/m*3 1.43 C 11.3 km/h
822 07-12-2014 20:25:00 4.2 C 5.86 g/m*3 1.12 C 12.9 km/h
823 07-12-2014 20:30:00 4.2 C 5.86 g/m*3 1.77 C 9.7 km/h
824 07-12-2014 20:35:00 4.2 C 5.93 g/m*3 1.77 C 9.7 km/h
825 07-12-2014 20:40:00 4.2 C 5.93 g/m*3 2.67 C 6.4 km/h
Sensor: Nr:Datum:Temp:Abs-Feuchte:Windchill:Wind:
Aussen-T/F 826 07-12-2014 20:45:00 4.2 C 5.93 g/m*3 1.43 C 11.3 km/h
827 07-12-2014 20:50:00 4.2 C 5.93 g/m*3 4.2 C 4.8 km/h
828 07-12-2014 20:55:00 4.2 C 5.93 g/m*3 0.84 C 14.5 km/h
829 07-12-2014 21:00:00 4.2 C 5.93 g/m*3 1.77 C 9.7 km/h
830 07-12-2014 21:05:00 4.3 C 5.9 g/m*3 0.27 C 19.3 km/h
831 07-12-2014 21:10:00 4.3 C 5.9 g/m*3 1.55 C 11.3 km/h
832 07-12-2014 21:15:00 4.3 C 5.9 g/m*3 1.55 C 11.3 km/h
833 07-12-2014 21:20:00 4.3 C 5.9 g/m*3 1.24 C 12.9 km/h
834 07-12-2014 21:25:00 4.4 C 5.94 g/m*3 2.01 C 9.7 km/h
835 07-12-2014 21:30:00 4.4 C 5.94 g/m*3 0.4 C 19.3 km/h
836 07-12-2014 21:35:00 4.4 C 5.94 g/m*3 1.67 C 11.3 km/h
837 07-12-2014 21:40:00 4.4 C 5.94 g/m*3 2.01 C 9.7 km/h
838 07-12-2014 21:45:00 4.4 C 5.94 g/m*3 0.4 C 19.3 km/h
839 07-12-2014 21:50:00 4.4 C 5.94 g/m*3 0.4 C 19.3 km/h
840 07-12-2014 21:55:00 4.4 C 5.94 g/m*3 1.09 C 14.5 km/h
841 07-12-2014 22:00:00 4.4 C 5.94 g/m*3 1.36 C 12.9 km/h
842 07-12-2014 22:05:00 4.4 C 5.94 g/m*3 0.2 C 20.9 km/h
843 07-12-2014 22:10:00 4.4 C 5.94 g/m*3 1.67 C 11.3 km/h
844 07-12-2014 22:15:00 4.4 C 5.94 g/m*3 1.09 C 14.5 km/h
845 07-12-2014 22:20:00 4.4 C 5.94 g/m*3 0.2 C 20.9 km/h
846 07-12-2014 22:25:00 4.4 C 5.94 g/m*3 1.67 C 11.3 km/h
847 07-12-2014 22:30:00 4.4 C 5.94 g/m*3 -0.33 C 25.7 km/h
848 07-12-2014 22:35:00 4.4 C 5.94 g/m*3 1.36 C 12.9 km/h
849 07-12-2014 22:40:00 4.5 C 5.98 g/m*3 0.74 C 17.7 km/h
850 07-12-2014 22:45:00 4.4 C 5.94 g/m*3 1.09 C 14.5 km/h
Sensor: Nr:Datum:Temp:Abs-Feuchte:Windchill:Wind:
Aussen-T/F 851 07-12-2014 22:50:00 4.4 C 5.94 g/m*3 1.09 C 14.5 km/h
852 07-12-2014 22:55:00 4.4 C 5.94 g/m*3 2.01 C 9.7 km/h
853 07-12-2014 23:00:00 4.4 C 5.94 g/m*3 1.09 C 14.5 km/h
854 07-12-2014 23:05:00 4.4 C 5.94 g/m*3 1.09 C 14.5 km/h
855 07-12-2014 23:10:00 4.4 C 5.94 g/m*3 1.09 C 14.5 km/h
856 07-12-2014 23:15:00 4.5 C 5.98 g/m*3 1.48 C 12.9 km/h
857 07-12-2014 23:20:00 4.5 C 5.98 g/m*3 1.48 C 12.9 km/h
858 07-12-2014 23:25:00 4.5 C 5.98 g/m*3 1.79 C 11.3 km/h
859 07-12-2014 23:30:00 4.4 C 5.94 g/m*3 1.67 C 11.3 km/h
860 07-12-2014 23:35:00 4.4 C 5.94 g/m*3 2.01 C 9.7 km/h
861 07-12-2014 23:40:00 4.5 C 5.98 g/m*3 1.48 C 12.9 km/h
862 07-12-2014 23:45:00 4.6 C 6.02 g/m*3 0.86 C 17.7 km/h
863 07-12-2014 23:50:00 4.6 C 6.02 g/m*3 1.61 C 12.9 km/h
864 07-12-2014 23:55:00 4.6 C 6.02 g/m*3 1.91 C 11.3 km/h
865 08-12-2014 00:00:00 4.6 C 6.02 g/m*3 1.91 C 11.3 km/h
866 08-12-2014 00:05:00 4.6 C 6.02 g/m*3 2.25 C 9.7 km/h
867 08-12-2014 00:10:00 4.6 C 6.02 g/m*3 2.64 C 8.1 km/h
868 08-12-2014 00:15:00 4.7 C 6.06 g/m*3 2.37 C 9.7 km/h
869 08-12-2014 00:20:00 4.7 C 6.06 g/m*3 2.03 C 11.3 km/h
870 08-12-2014 00:25:00 4.8 C 6.1 g/m*3 1.85 C 12.9 km/h
871 08-12-2014 00:30:00 4.8 C 6.1 g/m*3 1.58 C 14.5 km/h
872 08-12-2014 00:35:00 4.8 C 6.1 g/m*3 1.85 C 12.9 km/h
873 08-12-2014 00:40:00 4.8 C 6.1 g/m*3 1.85 C 12.9 km/h
874 08-12-2014 00:45:00 4.8 C 6.1 g/m*3 3.36 C 6.4 km/h
875 08-12-2014 00:50:00 4.8 C 6.17 g/m*3 4.8 C 4.8 km/h
Sensor: Nr:Datum:Temp:Abs-Feuchte:Windchill:Wind:
Aussen-T/F 876 08-12-2014 00:55:00 4.7 C 6.13 g/m*3 2.76 C 8.1 km/h
877 08-12-2014 01:00:00 4.7 C 6.19 g/m*3 3.25 C 6.4 km/h
878 08-12-2014 01:05:00 4.6 C 6.15 g/m*3 3.13 C 6.4 km/h
879 08-12-2014 01:10:00 4.6 C 6.15 g/m*3 1.61 C 12.9 km/h
880 08-12-2014 01:15:00 4.6 C 6.15 g/m*3 3.13 C 6.4 km/h
881 08-12-2014 01:20:00 4.6 C 6.22 g/m*3 2.64 C 8.1 km/h
882 08-12-2014 01:25:00 4.6 C 6.22 g/m*3 1.34 C 14.5 km/h
883 08-12-2014 01:30:00 4.6 C 6.22 g/m*3 1.61 C 12.9 km/h
884 08-12-2014 01:35:00 4.6 C 6.22 g/m*3 3.13 C 6.4 km/h
885 08-12-2014 01:40:00 4.6 C 6.22 g/m*3 3.13 C 6.4 km/h
886 08-12-2014 01:45:00 4.6 C 6.22 g/m*3 3.13 C 6.4 km/h
887 08-12-2014 01:50:00 4.6 C 6.22 g/m*3 3.13 C 6.4 km/h
888 08-12-2014 01:55:00 4.6 C 6.22 g/m*3 2.25 C 9.7 km/h
889 08-12-2014 02:00:00 4.6 C 6.15 g/m*3 3.13 C 6.4 km/h
890 08-12-2014 02:05:00 4.4 C 6.07 g/m*3 4.4 C 4.8 km/h
891 08-12-2014 02:10:00 4.2 C 5.99 g/m*3 4.2 C 3.2 km/h
892 08-12-2014 02:15:00 4 C 5.98 g/m*3 4 C 4.8 km/h
893 08-12-2014 02:20:00 3.8 C 5.9 g/m*3 3.8 C 4.8 km/h
894 08-12-2014 02:25:00 3.8 C 5.9 g/m*3 3.8 C 4.8 km/h
895 08-12-2014 02:30:00 3.7 C 5.86 g/m*3 3.7 C 4.8 km/h
896 08-12-2014 02:35:00 3.7 C 5.92 g/m*3 3.7 C 4.8 km/h
897 08-12-2014 02:40:00 3.6 C 5.88 g/m*3 3.6 C 4.8 km/h
898 08-12-2014 02:45:00 3.4 C 5.8 g/m*3 3.4 C 3.2 km/h
899 08-12-2014 02:50:00 3.3 C 5.76 g/m*3 3.3 C 3.2 km/h
900 08-12-2014 02:55:00 3.2 C 5.72 g/m*3 3.2 C 3.2 km/h
Sensor: Nr:Datum:Temp:Abs-Feuchte:Windchill:Wind:
Aussen-T/F 901 08-12-2014 03:00:00 3.2 C 5.79 g/m*3 3.2 C 4.8 km/h
902 08-12-2014 03:05:00 3.2 C 5.72 g/m*3 3.2 C 4.8 km/h
903 08-12-2014 03:10:00 3.2 C 5.79 g/m*3 3.2 C 3.2 km/h
904 08-12-2014 03:15:00 3.1 C 5.75 g/m*3 3.1 C 3.2 km/h
905 08-12-2014 03:20:00 3.2 C 5.79 g/m*3 3.2 C 3.2 km/h
906 08-12-2014 03:25:00 3.2 C 5.79 g/m*3 3.2 C 1.6 km/h
907 08-12-2014 03:30:00 3.2 C 5.79 g/m*3 3.2 C 1.6 km/h
908 08-12-2014 03:35:00 3.3 C 5.82 g/m*3 3.3 C 1.6 km/h
909 08-12-2014 03:40:00 3.4 C 5.92 g/m*3 3.4 C 1.6 km/h
910 08-12-2014 03:45:00 3.6 C 5.94 g/m*3 3.6 C 1.6 km/h
911 08-12-2014 03:50:00 3.7 C 5.98 g/m*3 3.7 C 3.2 km/h
912 08-12-2014 03:55:00 3.8 C 6.09 g/m*3 3.8 C 3.2 km/h
913 08-12-2014 04:00:00 3.8 C 6.02 g/m*3 1.7 C 8.1 km/h
914 08-12-2014 04:05:00 3.8 C 6.02 g/m*3 3.8 C 4.8 km/h
915 08-12-2014 04:10:00 3.8 C 6.02 g/m*3 1.7 C 8.1 km/h
916 08-12-2014 04:15:00 3.9 C 6 g/m*3 3.9 C 3.2 km/h
917 08-12-2014 04:20:00 3.9 C 6 g/m*3 2.32 C 6.4 km/h
918 08-12-2014 04:25:00 3.9 C 6 g/m*3 2.32 C 6.4 km/h
919 08-12-2014 04:30:00 3.9 C 6 g/m*3 3.9 C 3.2 km/h
920 08-12-2014 04:35:00 4 C 6.04 g/m*3 4 C 0 km/h
921 08-12-2014 04:40:00 4 C 6.04 g/m*3 4 C 3.2 km/h
922 08-12-2014 04:45:00 4 C 6.04 g/m*3 4 C 3.2 km/h
923 08-12-2014 04:50:00 4.1 C 6.08 g/m*3 2.05 C 8.1 km/h
924 08-12-2014 04:55:00 4.2 C 6.12 g/m*3 2.67 C 6.4 km/h
925 08-12-2014 05:00:00 4.2 C 6.06 g/m*3 2.17 C 8.1 km/h
Sensor: Nr:Datum:Temp:Abs-Feuchte:Windchill:Wind:
Aussen-T/F 926 08-12-2014 05:05:00 4.2 C 6.06 g/m*3 4.2 C 4.8 km/h
927 08-12-2014 05:10:00 4.2 C 6.06 g/m*3 2.67 C 6.4 km/h
928 08-12-2014 05:15:00 4.2 C 6.06 g/m*3 2.67 C 6.4 km/h
929 08-12-2014 05:20:00 4.2 C 6.06 g/m*3 4.2 C 4.8 km/h
930 08-12-2014 05:25:00 4.2 C 6.06 g/m*3 2.17 C 8.1 km/h
931 08-12-2014 05:30:00 4.2 C 6.06 g/m*3 4.2 C 3.2 km/h
932 08-12-2014 05:35:00 4.2 C 6.06 g/m*3 4.2 C 3.2 km/h
933 08-12-2014 05:40:00 4.1 C 6.02 g/m*3 4.1 C 4.8 km/h
934 08-12-2014 05:45:00 4 C 5.98 g/m*3 4 C 1.6 km/h
935 08-12-2014 05:50:00 3.8 C 5.83 g/m*3 3.8 C 1.6 km/h
936 08-12-2014 05:55:00 3.7 C 5.86 g/m*3 3.7 C 1.6 km/h
937 08-12-2014 06:00:00 3.5 C 5.78 g/m*3 3.5 C 3.2 km/h
938 08-12-2014 06:05:00 3.3 C 5.7 g/m*3 3.3 C 1.6 km/h
939 08-12-2014 06:10:00 3 C 5.59 g/m*3 3 C 3.2 km/h
940 08-12-2014 06:15:00 2.8 C 5.51 g/m*3 2.8 C 3.2 km/h
941 08-12-2014 06:20:00 2.7 C 5.54 g/m*3 2.7 C 3.2 km/h
942 08-12-2014 06:25:00 2.7 C 5.54 g/m*3 2.7 C 1.6 km/h
943 08-12-2014 06:30:00 2.6 C 5.5 g/m*3 2.6 C 1.6 km/h
944 08-12-2014 06:35:00 2.4 C 5.42 g/m*3 2.4 C 3.2 km/h
945 08-12-2014 06:40:00 2.4 C 5.42 g/m*3 2.4 C 1.6 km/h
946 08-12-2014 06:45:00 2.3 C 5.44 g/m*3 2.3 C 1.6 km/h
947 08-12-2014 06:50:00 2.3 C 5.39 g/m*3 2.3 C 3.2 km/h
948 08-12-2014 06:55:00 2.2 C 5.35 g/m*3 2.2 C 1.6 km/h
949 08-12-2014 07:00:00 2.2 C 5.41 g/m*3 2.2 C 1.6 km/h
950 08-12-2014 07:05:00 2.2 C 5.41 g/m*3 2.2 C 3.2 km/h
Sensor: Nr:Datum:Temp:Abs-Feuchte:Windchill:Wind:
Aussen-T/F 951 08-12-2014 07:10:00 2.1 C 5.37 g/m*3 2.1 C 3.2 km/h
952 08-12-2014 07:15:00 2.1 C 5.37 g/m*3 2.1 C 1.6 km/h
953 08-12-2014 07:20:00 2.1 C 5.37 g/m*3 2.1 C 1.6 km/h
954 08-12-2014 07:25:00 2.2 C 5.41 g/m*3 2.2 C 3.2 km/h
955 08-12-2014 07:30:00 2.3 C 5.5 g/m*3 2.3 C 4.8 km/h
956 08-12-2014 07:35:00 2.4 C 5.48 g/m*3 2.4 C 3.2 km/h
957 08-12-2014 07:40:00 2.4 C 5.48 g/m*3 2.4 C 4.8 km/h
958 08-12-2014 07:45:00 2.3 C 5.44 g/m*3 2.3 C 3.2 km/h
959 08-12-2014 07:50:00 2.3 C 5.44 g/m*3 2.3 C 3.2 km/h
960 08-12-2014 07:55:00 2.3 C 5.44 g/m*3 2.3 C 3.2 km/h
961 08-12-2014 08:00:00 2.3 C 5.44 g/m*3 2.3 C 4.8 km/h
962 08-12-2014 08:05:00 2.1 C 5.37 g/m*3 2.1 C 1.6 km/h
963 08-12-2014 08:10:00 1.9 C 5.3 g/m*3 1.9 C 1.6 km/h
964 08-12-2014 08:15:00 1.8 C 5.26 g/m*3 1.8 C 1.6 km/h
965 08-12-2014 08:20:00 1.7 C 5.23 g/m*3 1.7 C 3.2 km/h
966 08-12-2014 08:25:00 1.7 C 5.23 g/m*3 1.7 C 1.6 km/h
967 08-12-2014 08:30:00 1.7 C 5.23 g/m*3 1.7 C 1.6 km/h
968 08-12-2014 08:35:00 1.7 C 5.23 g/m*3 1.7 C 3.2 km/h
969 08-12-2014 08:40:00 1.8 C 5.32 g/m*3 1.8 C 3.2 km/h
970 08-12-2014 08:45:00 1.9 C 5.35 g/m*3 1.9 C 3.2 km/h
971 08-12-2014 08:50:00 1.9 C 5.35 g/m*3 1.9 C 3.2 km/h
972 08-12-2014 08:55:00 1.9 C 5.35 g/m*3 1.9 C 1.6 km/h
973 08-12-2014 09:00:00 1.9 C 5.35 g/m*3 1.9 C 0 km/h
974 08-12-2014 09:05:00 1.9 C 5.35 g/m*3 1.9 C 4.8 km/h
975 08-12-2014 09:10:00 2.1 C 5.43 g/m*3 2.1 C 3.2 km/h
Sensor: Nr:Datum:Temp:Abs-Feuchte:Windchill:Wind:
Aussen-T/F 976 08-12-2014 09:15:00 2.1 C 5.37 g/m*3 2.1 C 1.6 km/h
977 08-12-2014 09:20:00 2 C 5.33 g/m*3 2 C 0 km/h
978 08-12-2014 09:25:00 1.9 C 5.3 g/m*3 1.9 C 1.6 km/h
979 08-12-2014 09:30:00 2 C 5.33 g/m*3 2 C 1.6 km/h
980 08-12-2014 09:35:00 2.1 C 5.37 g/m*3 2.1 C 1.6 km/h
981 08-12-2014 09:40:00 2.2 C 5.41 g/m*3 2.2 C 1.6 km/h
982 08-12-2014 09:45:00 2.2 C 5.41 g/m*3 2.2 C 1.6 km/h
983 08-12-2014 09:50:00 2.3 C 5.44 g/m*3 2.3 C 3.2 km/h
984 08-12-2014 09:55:00 2.3 C 5.44 g/m*3 2.3 C 3.2 km/h
985 08-12-2014 10:00:00 2.5 C 5.52 g/m*3 2.5 C 1.6 km/h
986 08-12-2014 10:05:00 2.6 C 5.56 g/m*3 2.6 C 4.8 km/h
987 08-12-2014 10:10:00 2.7 C 5.59 g/m*3 2.7 C 3.2 km/h
988 08-12-2014 10:15:00 2.8 C 5.63 g/m*3 2.8 C 4.8 km/h
989 08-12-2014 10:20:00 2.9 C 5.67 g/m*3 1.17 C 6.4 km/h
990 08-12-2014 10:25:00 3 C 5.65 g/m*3 1.28 C 6.4 km/h
991 08-12-2014 10:30:00 3.1 C 5.69 g/m*3 1.4 C 6.4 km/h
992 08-12-2014 10:35:00 3.2 C 5.66 g/m*3 0.22 C 11.3 km/h
993 08-12-2014 10:40:00 3.3 C 5.7 g/m*3 0.7 C 9.7 km/h
994 08-12-2014 10:45:00 3.3 C 5.7 g/m*3 1.11 C 8.1 km/h
995 08-12-2014 10:50:00 3.4 C 5.68 g/m*3 0.82 C 9.7 km/h
996 08-12-2014 10:55:00 3.4 C 5.68 g/m*3 0.46 C 11.3 km/h
997 08-12-2014 11:00:00 3.5 C 5.72 g/m*3 0.58 C 11.3 km/h
998 08-12-2014 11:05:00 3.6 C 5.76 g/m*3 1.06 C 9.7 km/h
999 08-12-2014 11:10:00 3.6 C 5.69 g/m*3 1.06 C 9.7 km/h
1000 08-12-2014 11:15:00 3.6 C 5.69 g/m*3 0.7 C 11.3 km/h
Sensor: Nr:Datum:Temp:Abs-Feuchte:Windchill:Wind:
Aussen-T/F 1001 08-12-2014 11:20:00 3.6 C 5.69 g/m*3 0.39 C 12.9 km/h
1002 08-12-2014 11:25:00 3.7 C 5.73 g/m*3 0.82 C 11.3 km/h
1003 08-12-2014 11:30:00 3.8 C 5.71 g/m*3 1.29 C 9.7 km/h
1004 08-12-2014 11:35:00 3.9 C 5.75 g/m*3 0.75 C 12.9 km/h
1005 08-12-2014 11:40:00 4 C 5.79 g/m*3 1.53 C 9.7 km/h
1006 08-12-2014 11:45:00 4 C 5.72 g/m*3 1.18 C 11.3 km/h
1007 08-12-2014 11:50:00 3.9 C 5.68 g/m*3 1.82 C 8.1 km/h
1008 08-12-2014 11:55:00 3.9 C 5.68 g/m*3 1.06 C 11.3 km/h
1009 08-12-2014 12:00:00 3.9 C 5.68 g/m*3 1.06 C 11.3 km/h
1010 08-12-2014 12:05:00 3.8 C 5.65 g/m*3 0.94 C 11.3 km/h
1011 08-12-2014 12:10:00 3.8 C 5.65 g/m*3 1.7 C 8.1 km/h
1012 08-12-2014 12:15:00 3.8 C 5.58 g/m*3 1.29 C 9.7 km/h
1013 08-12-2014 12:20:00 3.8 C 5.52 g/m*3 0.35 C 14.5 km/h
1014 08-12-2014 12:25:00 3.8 C 5.52 g/m*3 0.63 C 12.9 km/h
1015 08-12-2014 12:30:00 3.9 C 5.49 g/m*3 0.75 C 12.9 km/h
1016 08-12-2014 12:35:00 3.9 C 5.49 g/m*3 0.47 C 14.5 km/h
1017 08-12-2014 12:40:00 3.8 C 5.46 g/m*3 0.35 C 14.5 km/h
1018 08-12-2014 12:45:00 3.9 C 5.49 g/m*3 2.32 C 6.4 km/h
1019 08-12-2014 12:50:00 3.9 C 5.56 g/m*3 1.41 C 9.7 km/h
1020 08-12-2014 12:55:00 3.9 C 5.56 g/m*3 1.82 C 8.1 km/h
1021 08-12-2014 13:00:00 3.9 C 5.56 g/m*3 1.82 C 8.1 km/h
1022 08-12-2014 13:05:00 4 C 5.53 g/m*3 1.18 C 11.3 km/h
1023 08-12-2014 13:10:00 4 C 5.53 g/m*3 1.93 C 8.1 km/h
1024 08-12-2014 13:15:00 4 C 5.53 g/m*3 2.44 C 6.4 km/h
1025 08-12-2014 13:20:00 3.9 C 5.49 g/m*3 0.75 C 12.9 km/h
Sensor: Nr:Datum:Temp:Abs-Feuchte:Windchill:Wind:
Aussen-T/F 1026 08-12-2014 13:25:00 3.9 C 5.49 g/m*3 1.06 C 11.3 km/h
1027 08-12-2014 13:30:00 3.9 C 5.49 g/m*3 3.9 C 4.8 km/h
1028 08-12-2014 13:35:00 3.8 C 5.46 g/m*3 1.7 C 8.1 km/h
1029 08-12-2014 13:40:00 3.8 C 5.46 g/m*3 1.7 C 8.1 km/h
1030 08-12-2014 13:45:00 3.9 C 5.49 g/m*3 2.32 C 6.4 km/h
1031 08-12-2014 13:50:00 3.9 C 5.43 g/m*3 1.06 C 11.3 km/h
1032 08-12-2014 13:55:00 4 C 5.47 g/m*3 0.6 C 14.5 km/h
1033 08-12-2014 14:00:00 3.9 C 5.43 g/m*3 1.06 C 11.3 km/h
1034 08-12-2014 14:05:00 4 C 5.47 g/m*3 1.18 C 11.3 km/h
1035 08-12-2014 14:10:00 4.1 C 5.5 g/m*3 1.31 C 11.3 km/h
1036 08-12-2014 14:15:00 4.1 C 5.5 g/m*3 0.72 C 14.5 km/h
1037 08-12-2014 14:20:00 4.1 C 5.5 g/m*3 1 C 12.9 km/h
1038 08-12-2014 14:25:00 4.1 C 5.5 g/m*3 4.1 C 4.8 km/h
1039 08-12-2014 14:30:00 4.1 C 5.5 g/m*3 2.05 C 8.1 km/h
1040 08-12-2014 14:35:00 4.2 C 5.48 g/m*3 1.43 C 11.3 km/h
1041 08-12-2014 14:40:00 4.2 C 5.48 g/m*3 1.77 C 9.7 km/h
1042 08-12-2014 14:45:00 4.2 C 5.54 g/m*3 1.43 C 11.3 km/h
1043 08-12-2014 14:50:00 4.2 C 5.54 g/m*3 1.77 C 9.7 km/h
1044 08-12-2014 14:55:00 4.2 C 5.48 g/m*3 2.17 C 8.1 km/h
1045 08-12-2014 15:00:00 4.2 C 5.48 g/m*3 1.43 C 11.3 km/h
1046 08-12-2014 15:05:00 4.2 C 5.54 g/m*3 4.2 C 4.8 km/h
1047 08-12-2014 15:10:00 4.1 C 5.57 g/m*3 4.1 C 1.6 km/h
1048 08-12-2014 15:15:00 3.9 C 5.49 g/m*3 3.9 C 3.2 km/h
1049 08-12-2014 15:20:00 3.8 C 5.46 g/m*3 3.8 C 3.2 km/h
1050 08-12-2014 15:25:00 3.7 C 5.48 g/m*3 3.7 C 4.8 km/h
Sensor: Nr:Datum:Temp:Abs-Feuchte:Windchill:Wind:
Aussen-T/F 1051 08-12-2014 15:30:00 3.8 C 5.52 g/m*3 3.8 C 4.8 km/h
1052 08-12-2014 15:35:00 3.8 C 5.46 g/m*3 2.21 C 6.4 km/h
1053 08-12-2014 15:40:00 3.9 C 5.49 g/m*3 2.32 C 6.4 km/h
1054 08-12-2014 15:45:00 4.1 C 5.57 g/m*3 0.24 C 17.7 km/h
1055 08-12-2014 15:50:00 4.2 C 5.54 g/m*3 0.36 C 17.7 km/h
1056 08-12-2014 15:55:00 4.2 C 5.48 g/m*3 1.77 C 9.7 km/h
1057 08-12-2014 16:00:00 4.1 C 5.5 g/m*3 1 C 12.9 km/h
1058 08-12-2014 16:05:00 4.1 C 5.5 g/m*3 2.05 C 8.1 km/h
1059 08-12-2014 16:10:00 4 C 5.4 g/m*3 1.18 C 11.3 km/h
1060 08-12-2014 16:15:00 4 C 5.4 g/m*3 2.44 C 6.4 km/h
1061 08-12-2014 16:20:00 3.9 C 5.37 g/m*3 1.82 C 8.1 km/h
1062 08-12-2014 16:25:00 3.9 C 5.37 g/m*3 3.9 C 4.8 km/h
1063 08-12-2014 16:30:00 3.8 C 5.4 g/m*3 3.8 C 3.2 km/h
1064 08-12-2014 16:35:00 3.6 C 5.39 g/m*3 3.6 C 1.6 km/h
1065 08-12-2014 16:40:00 3.3 C 5.34 g/m*3 3.3 C 1.6 km/h
1066 08-12-2014 16:45:00 3 C 5.29 g/m*3 3 C 3.2 km/h
1067 08-12-2014 16:50:00 2.7 C 5.24 g/m*3 2.7 C 3.2 km/h
1068 08-12-2014 16:55:00 2.6 C 5.27 g/m*3 2.6 C 3.2 km/h
1069 08-12-2014 17:00:00 2.4 C 5.25 g/m*3 2.4 C 3.2 km/h
1070 08-12-2014 17:05:00 2.4 C 5.31 g/m*3 2.4 C 1.6 km/h
1071 08-12-2014 17:10:00 2.4 C 5.31 g/m*3 2.4 C 3.2 km/h
1072 08-12-2014 17:15:00 2.4 C 5.31 g/m*3 2.4 C 1.6 km/h
1073 08-12-2014 17:20:00 2.3 C 5.27 g/m*3 2.3 C 1.6 km/h
1074 08-12-2014 17:25:00 2.3 C 5.27 g/m*3 2.3 C 3.2 km/h
1075 08-12-2014 17:30:00 2.3 C 5.33 g/m*3 2.3 C 1.6 km/h
Sensor: Nr:Datum:Temp:Abs-Feuchte:Windchill:Wind:
Aussen-T/F 1076 08-12-2014 17:35:00 2.2 C 5.29 g/m*3 2.2 C 3.2 km/h
1077 08-12-2014 17:40:00 2.2 C 5.29 g/m*3 2.2 C 1.6 km/h
1078 08-12-2014 17:45:00 2.2 C 5.29 g/m*3 2.2 C 1.6 km/h
1079 08-12-2014 17:50:00 2.1 C 5.26 g/m*3 2.1 C 3.2 km/h
1080 08-12-2014 17:55:00 2 C 5.22 g/m*3 2 C 3.2 km/h
1081 08-12-2014 18:00:00 2 C 5.22 g/m*3 2 C 3.2 km/h
1082 08-12-2014 18:05:00 2.1 C 5.31 g/m*3 2.1 C 3.2 km/h
1083 08-12-2014 18:10:00 2.1 C 5.31 g/m*3 2.1 C 1.6 km/h
1084 08-12-2014 18:15:00 2.2 C 5.35 g/m*3 2.2 C 3.2 km/h
1085 08-12-2014 18:20:00 2.2 C 5.35 g/m*3 2.2 C 3.2 km/h
1086 08-12-2014 18:25:00 2.2 C 5.35 g/m*3 2.2 C 1.6 km/h
1087 08-12-2014 18:30:00 2.2 C 5.35 g/m*3 2.2 C 3.2 km/h
1088 08-12-2014 18:35:00 2.2 C 5.35 g/m*3 2.2 C 1.6 km/h
1089 08-12-2014 18:40:00 2.1 C 5.26 g/m*3 2.1 C 3.2 km/h
1090 08-12-2014 18:45:00 2.1 C 5.26 g/m*3 2.1 C 1.6 km/h
1091 08-12-2014 18:50:00 1.9 C 5.19 g/m*3 1.9 C 3.2 km/h
1092 08-12-2014 18:55:00 1.8 C 5.15 g/m*3 1.8 C 1.6 km/h
1093 08-12-2014 19:00:00 1.8 C 5.21 g/m*3 1.8 C 1.6 km/h
1094 08-12-2014 19:05:00 1.8 C 5.21 g/m*3 1.8 C 3.2 km/h
1095 08-12-2014 19:10:00 1.8 C 5.21 g/m*3 1.8 C 3.2 km/h
1096 08-12-2014 19:15:00 1.8 C 5.21 g/m*3 1.8 C 0 km/h
1097 08-12-2014 19:20:00 1.8 C 5.21 g/m*3 1.8 C 0 km/h
1098 08-12-2014 19:25:00 1.9 C 5.24 g/m*3 1.9 C 0 km/h
1099 08-12-2014 19:30:00 1.9 C 5.24 g/m*3 1.9 C 0 km/h
1100 08-12-2014 19:35:00 2 C 5.33 g/m*3 2 C 0 km/h
Sensor: Nr:Datum:Temp:Abs-Feuchte:Windchill:Wind:
Aussen-T/F 1101 08-12-2014 19:40:00 2.1 C 5.37 g/m*3 2.1 C 0 km/h
1102 08-12-2014 19:45:00 2.1 C 5.31 g/m*3 2.1 C 0 km/h
1103 08-12-2014 19:50:00 2.1 C 5.31 g/m*3 2.1 C 0 km/h
1104 08-12-2014 19:55:00 2.1 C 5.31 g/m*3 2.1 C 0 km/h
1105 08-12-2014 20:00:00 2.1 C 5.31 g/m*3 2.1 C 0 km/h
1106 08-12-2014 20:05:00 2 C 5.28 g/m*3 2 C 0 km/h
1107 08-12-2014 20:10:00 1.9 C 5.24 g/m*3 1.9 C 0 km/h
1108 08-12-2014 20:15:00 1.9 C 5.24 g/m*3 1.9 C 0 km/h
1109 08-12-2014 20:20:00 1.9 C 5.24 g/m*3 1.9 C 0 km/h
1110 08-12-2014 20:25:00 1.9 C 5.24 g/m*3 1.9 C 0 km/h
1111 08-12-2014 20:30:00 1.8 C 5.21 g/m*3 1.8 C 0 km/h
1112 08-12-2014 20:35:00 1.8 C 5.21 g/m*3 1.8 C 0 km/h
1113 08-12-2014 20:40:00 1.8 C 5.21 g/m*3 1.8 C 0 km/h
1114 08-12-2014 20:45:00 1.8 C 5.21 g/m*3 1.8 C 0 km/h
1115 08-12-2014 20:50:00 1.8 C 5.21 g/m*3 1.8 C 0 km/h
1116 08-12-2014 20:55:00 1.8 C 5.21 g/m*3 1.8 C 0 km/h
1117 08-12-2014 21:00:00 1.8 C 5.26 g/m*3 1.8 C 0 km/h
1118 08-12-2014 21:05:00 1.9 C 5.3 g/m*3 1.9 C 0 km/h
1119 08-12-2014 21:10:00 1.9 C 5.3 g/m*3 1.9 C 0 km/h
1120 08-12-2014 21:15:00 1.9 C 5.3 g/m*3 1.9 C 0 km/h
1121 08-12-2014 21:20:00 2 C 5.33 g/m*3 2 C 0 km/h
1122 08-12-2014 21:25:00 2.1 C 5.37 g/m*3 2.1 C 0 km/h
1123 08-12-2014 21:30:00 2.1 C 5.37 g/m*3 2.1 C 0 km/h
1124 08-12-2014 21:35:00 2.1 C 5.37 g/m*3 2.1 C 0 km/h
1125 08-12-2014 21:40:00 2.2 C 5.41 g/m*3 2.2 C 0 km/h
Sensor: Nr:Datum:Temp:Abs-Feuchte:Windchill:Wind:
Aussen-T/F 1126 08-12-2014 21:45:00 2.2 C 5.41 g/m*3 2.2 C 0 km/h
1127 08-12-2014 21:50:00 2.2 C 5.41 g/m*3 2.2 C 0 km/h
1128 08-12-2014 21:55:00 2.3 C 5.44 g/m*3 2.3 C 0 km/h
1129 08-12-2014 22:00:00 2.3 C 5.44 g/m*3 2.3 C 0 km/h
1130 08-12-2014 22:05:00 2.3 C 5.44 g/m*3 2.3 C 0 km/h
1131 08-12-2014 22:10:00 2.3 C 5.44 g/m*3 2.3 C 0 km/h
1132 08-12-2014 22:15:00 2.3 C 5.44 g/m*3 2.3 C 0 km/h
1133 08-12-2014 22:20:00 2.3 C 5.44 g/m*3 2.3 C 0 km/h
1134 08-12-2014 22:25:00 2.3 C 5.44 g/m*3 2.3 C 0 km/h
1135 08-12-2014 22:30:00 2.3 C 5.44 g/m*3 2.3 C 0 km/h
1136 08-12-2014 22:35:00 2.3 C 5.44 g/m*3 2.3 C 0 km/h
1137 08-12-2014 22:40:00 2.3 C 5.44 g/m*3 2.3 C 0 km/h
1138 08-12-2014 22:45:00 2.3 C 5.44 g/m*3 2.3 C 0 km/h
1139 08-12-2014 22:50:00 2.3 C 5.44 g/m*3 2.3 C 0 km/h
1140 08-12-2014 22:55:00 2.3 C 5.44 g/m*3 2.3 C 0 km/h
1141 08-12-2014 23:00:00 2.3 C 5.44 g/m*3 2.3 C 0 km/h
1142 08-12-2014 23:05:00 2.4 C 5.54 g/m*3 2.4 C 0 km/h
1143 08-12-2014 23:10:00 2.4 C 5.54 g/m*3 2.4 C 0 km/h
1144 08-12-2014 23:15:00 2.4 C 5.54 g/m*3 2.4 C 0 km/h
1145 08-12-2014 23:20:00 2.4 C 5.54 g/m*3 2.4 C 0 km/h
1146 08-12-2014 23:25:00 2.4 C 5.54 g/m*3 2.4 C 0 km/h
1147 08-12-2014 23:30:00 2.4 C 5.54 g/m*3 2.4 C 0 km/h
1148 08-12-2014 23:35:00 2.4 C 5.54 g/m*3 2.4 C 0 km/h
1149 08-12-2014 23:40:00 2.4 C 5.54 g/m*3 2.4 C 0 km/h
1150 08-12-2014 23:45:00 2.4 C 5.54 g/m*3 2.4 C 0 km/h
Sensor: Nr:Datum:Temp:Abs-Feuchte:Windchill:Wind:
Aussen-T/F 1151 08-12-2014 23:50:00 2.4 C 5.54 g/m*3 2.4 C 0 km/h
1152 08-12-2014 23:55:00 2.4 C 5.54 g/m*3 2.4 C 0 km/h
1153 09-12-2014 00:00:00 2.4 C 5.54 g/m*3 2.4 C 0 km/h
1154 09-12-2014 00:05:00 2.4 C 5.54 g/m*3 2.4 C 0 km/h
1155 09-12-2014 00:10:00 2.4 C 5.54 g/m*3 2.4 C 0 km/h
1156 09-12-2014 00:15:00 2.3 C 5.5 g/m*3 2.3 C 0 km/h
1157 09-12-2014 00:20:00 2.4 C 5.54 g/m*3 2.4 C 0 km/h
1158 09-12-2014 00:25:00 2.3 C 5.5 g/m*3 2.3 C 0 km/h
1159 09-12-2014 00:30:00 2.3 C 5.5 g/m*3 2.3 C 0 km/h
1160 09-12-2014 00:35:00 2.2 C 5.46 g/m*3 2.2 C 0 km/h
1161 09-12-2014 00:40:00 2.2 C 5.46 g/m*3 2.2 C 0 km/h
1162 09-12-2014 00:45:00 2.2 C 5.46 g/m*3 2.2 C 0 km/h
1163 09-12-2014 00:50:00 2.1 C 5.43 g/m*3 2.1 C 0 km/h
1164 09-12-2014 00:55:00 2.1 C 5.43 g/m*3 2.1 C 0 km/h
1165 09-12-2014 01:00:00 2.2 C 5.46 g/m*3 2.2 C 0 km/h
1166 09-12-2014 01:05:00 2.2 C 5.46 g/m*3 2.2 C 0 km/h
1167 09-12-2014 01:10:00 2.2 C 5.46 g/m*3 2.2 C 0 km/h
1168 09-12-2014 01:15:00 2.2 C 5.46 g/m*3 2.2 C 0 km/h
1169 09-12-2014 01:20:00 2.2 C 5.46 g/m*3 2.2 C 0 km/h
1170 09-12-2014 01:25:00 2.2 C 5.46 g/m*3 2.2 C 3.2 km/h
1171 09-12-2014 01:30:00 2.2 C 5.46 g/m*3 2.2 C 0 km/h
1172 09-12-2014 01:35:00 2.2 C 5.46 g/m*3 2.2 C 0 km/h
1173 09-12-2014 01:40:00 2.2 C 5.46 g/m*3 2.2 C 0 km/h
1174 09-12-2014 01:45:00 2.2 C 5.46 g/m*3 2.2 C 0 km/h
1175 09-12-2014 01:50:00 2.2 C 5.46 g/m*3 2.2 C 4.8 km/h
Sensor: Nr:Datum:Temp:Abs-Feuchte:Windchill:Wind:
Aussen-T/F 1176 09-12-2014 01:55:00 2.2 C 5.46 g/m*3 2.2 C 4.8 km/h
1177 09-12-2014 02:00:00 2.2 C 5.46 g/m*3 2.2 C 0 km/h
1178 09-12-2014 02:05:00 2.2 C 5.46 g/m*3 2.2 C 0 km/h
1179 09-12-2014 02:10:00 2.2 C 5.46 g/m*3 2.2 C 0 km/h
1180 09-12-2014 02:15:00 2.2 C 5.46 g/m*3 2.2 C 1.6 km/h
1181 09-12-2014 02:20:00 2.2 C 5.46 g/m*3 2.2 C 3.2 km/h
1182 09-12-2014 02:25:00 2.2 C 5.46 g/m*3 2.2 C 0 km/h
1183 09-12-2014 02:30:00 2.2 C 5.46 g/m*3 2.2 C 0 km/h
1184 09-12-2014 02:35:00 2.3 C 5.5 g/m*3 2.3 C 0 km/h
1185 09-12-2014 02:40:00 2.3 C 5.5 g/m*3 2.3 C 1.6 km/h
1186 09-12-2014 02:45:00 2.3 C 5.5 g/m*3 2.3 C 1.6 km/h
1187 09-12-2014 02:50:00 2.3 C 5.5 g/m*3 2.3 C 4.8 km/h
1188 09-12-2014 02:55:00 2.3 C 5.5 g/m*3 2.3 C 3.2 km/h
1189 09-12-2014 03:00:00 2.3 C 5.5 g/m*3 2.3 C 0 km/h
1190 09-12-2014 03:05:00 2.3 C 5.5 g/m*3 2.3 C 0 km/h
1191 09-12-2014 03:10:00 2.3 C 5.5 g/m*3 2.3 C 1.6 km/h
1192 09-12-2014 03:15:00 2.3 C 5.5 g/m*3 2.3 C 3.2 km/h
1193 09-12-2014 03:20:00 2.3 C 5.5 g/m*3 2.3 C 1.6 km/h
1194 09-12-2014 03:25:00 2.3 C 5.5 g/m*3 2.3 C 0 km/h
1195 09-12-2014 03:30:00 2.3 C 5.5 g/m*3 2.3 C 0 km/h
1196 09-12-2014 03:35:00 2.3 C 5.5 g/m*3 2.3 C 3.2 km/h
1197 09-12-2014 03:40:00 2.3 C 5.5 g/m*3 2.3 C 0 km/h
1198 09-12-2014 03:45:00 2.2 C 5.46 g/m*3 2.2 C 0 km/h
1199 09-12-2014 03:50:00 2.2 C 5.46 g/m*3 2.2 C 0 km/h
1200 09-12-2014 03:55:00 2.2 C 5.46 g/m*3 2.2 C 3.2 km/h
Sensor: Nr:Datum:Temp:Abs-Feuchte:Windchill:Wind:
Aussen-T/F 1201 09-12-2014 04:00:00 2.2 C 5.46 g/m*3 2.2 C 0 km/h
1202 09-12-2014 04:05:00 2.1 C 5.43 g/m*3 2.1 C 0 km/h
1203 09-12-2014 04:10:00 1.9 C 5.35 g/m*3 1.9 C 0 km/h
1204 09-12-2014 04:15:00 1.8 C 5.32 g/m*3 1.8 C 0 km/h
1205 09-12-2014 04:20:00 1.8 C 5.32 g/m*3 1.8 C 0 km/h
1206 09-12-2014 04:25:00 1.8 C 5.32 g/m*3 1.8 C 0 km/h
1207 09-12-2014 04:30:00 1.8 C 5.32 g/m*3 1.8 C 1.6 km/h
1208 09-12-2014 04:35:00 1.8 C 5.32 g/m*3 1.8 C 1.6 km/h
1209 09-12-2014 04:40:00 1.8 C 5.32 g/m*3 1.8 C 0 km/h
1210 09-12-2014 04:45:00 1.8 C 5.32 g/m*3 1.8 C 0 km/h
1211 09-12-2014 04:50:00 1.6 C 5.25 g/m*3 1.6 C 0 km/h
1212 09-12-2014 04:55:00 1.5 C 5.21 g/m*3 1.5 C 1.6 km/h
1213 09-12-2014 05:00:00 1.4 C 5.17 g/m*3 1.4 C 0 km/h
1214 09-12-2014 05:05:00 1.4 C 5.17 g/m*3 1.4 C 0 km/h
1215 09-12-2014 05:10:00 1.5 C 5.21 g/m*3 1.5 C 0 km/h
1216 09-12-2014 05:15:00 1.7 C 5.34 g/m*3 1.7 C 0 km/h
1217 09-12-2014 05:20:00 1.7 C 5.28 g/m*3 1.7 C 0 km/h
1218 09-12-2014 05:25:00 1.8 C 5.37 g/m*3 1.8 C 0 km/h
1219 09-12-2014 05:30:00 1.9 C 5.41 g/m*3 1.9 C 0 km/h
1220 09-12-2014 05:35:00 1.9 C 5.41 g/m*3 1.9 C 1.6 km/h
1221 09-12-2014 05:40:00 1.9 C 5.41 g/m*3 1.9 C 0 km/h
1222 09-12-2014 05:45:00 1.9 C 5.41 g/m*3 1.9 C 0 km/h
1223 09-12-2014 05:50:00 1.7 C 5.28 g/m*3 1.7 C 0 km/h
1224 09-12-2014 05:55:00 1.5 C 5.21 g/m*3 1.5 C 0 km/h
1225 09-12-2014 06:00:00 1.3 C 5.14 g/m*3 1.3 C 0 km/h
Sensor: Nr:Datum:Temp:Abs-Feuchte:Windchill:Wind:
Aussen-T/F 1226 09-12-2014 06:05:00 1.2 C 5.1 g/m*3 1.2 C 0 km/h
1227 09-12-2014 06:10:00 1.2 C 5.1 g/m*3 1.2 C 0 km/h
1228 09-12-2014 06:15:00 1.3 C 5.14 g/m*3 1.3 C 0 km/h
1229 09-12-2014 06:20:00 1.3 C 5.19 g/m*3 1.3 C 1.6 km/h
1230 09-12-2014 06:25:00 1.4 C 5.17 g/m*3 1.4 C 1.6 km/h
1231 09-12-2014 06:30:00 1.4 C 5.17 g/m*3 1.4 C 0 km/h
1232 09-12-2014 06:35:00 1.3 C 5.14 g/m*3 1.3 C 3.2 km/h
1233 09-12-2014 06:40:00 1.2 C 5.1 g/m*3 1.2 C 0 km/h
1234 09-12-2014 06:45:00 0.9 C 5 g/m*3 0.9 C 0 km/h
1235 09-12-2014 06:50:00 0.9 C 5 g/m*3 0.9 C 0 km/h
1236 09-12-2014 06:55:00 0.8 C 4.97 g/m*3 0.8 C 0 km/h
1237 09-12-2014 07:00:00 0.8 C 4.97 g/m*3 0.8 C 0 km/h
1238 09-12-2014 07:05:00 0.8 C 4.97 g/m*3 0.8 C 1.6 km/h
1239 09-12-2014 07:10:00 0.9 C 5.05 g/m*3 0.9 C 1.6 km/h
1240 09-12-2014 07:15:00 0.9 C 5.05 g/m*3 0.9 C 1.6 km/h
1241 09-12-2014 07:20:00 1 C 5.09 g/m*3 1 C 0 km/h
1242 09-12-2014 07:25:00 1.1 C 5.12 g/m*3 1.1 C 0 km/h
1243 09-12-2014 07:30:00 1.1 C 5.12 g/m*3 1.1 C 1.6 km/h
1244 09-12-2014 07:35:00 1.1 C 5.12 g/m*3 1.1 C 0 km/h
1245 09-12-2014 07:40:00 1.2 C 5.16 g/m*3 1.2 C 1.6 km/h
1246 09-12-2014 07:45:00 1.2 C 5.16 g/m*3 1.2 C 0 km/h
1247 09-12-2014 07:50:00 1.3 C 5.19 g/m*3 1.3 C 0 km/h
1248 09-12-2014 07:55:00 1.3 C 5.19 g/m*3 1.3 C 0 km/h
1249 09-12-2014 08:00:00 1.3 C 5.19 g/m*3 1.3 C 0 km/h
1250 09-12-2014 08:05:00 1.3 C 5.19 g/m*3 1.3 C 1.6 km/h
Sensor: Nr:Datum:Temp:Abs-Feuchte:Windchill:Wind:
Aussen-T/F 1251 09-12-2014 08:10:00 1.3 C 5.19 g/m*3 1.3 C 0 km/h
1252 09-12-2014 08:15:00 1.3 C 5.19 g/m*3 1.3 C 3.2 km/h
1253 09-12-2014 08:20:00 1.3 C 5.19 g/m*3 1.3 C 0 km/h
1254 09-12-2014 08:25:00 1.3 C 5.19 g/m*3 1.3 C 0 km/h
1255 09-12-2014 08:30:00 1.3 C 5.19 g/m*3 1.3 C 0 km/h
1256 09-12-2014 08:35:00 1.4 C 5.23 g/m*3 1.4 C 0 km/h
1257 09-12-2014 08:40:00 1.4 C 5.23 g/m*3 1.4 C 0 km/h
1258 09-12-2014 08:45:00 1.4 C 5.23 g/m*3 1.4 C 0 km/h
1259 09-12-2014 08:50:00 1.5 C 5.26 g/m*3 1.5 C 0 km/h
1260 09-12-2014 08:55:00 1.5 C 5.26 g/m*3 1.5 C 0 km/h
1261 09-12-2014 09:00:00 1.6 C 5.3 g/m*3 1.6 C 0 km/h
1262 09-12-2014 09:05:00 1.6 C 5.3 g/m*3 1.6 C 0 km/h
1263 09-12-2014 09:10:00 1.7 C 5.34 g/m*3 1.7 C 1.6 km/h
1264 09-12-2014 09:15:00 1.7 C 5.34 g/m*3 1.7 C 0 km/h
1265 09-12-2014 09:20:00 1.7 C 5.34 g/m*3 1.7 C 1.6 km/h
1266 09-12-2014 09:25:00 1.8 C 5.37 g/m*3 1.8 C 0 km/h
1267 09-12-2014 09:30:00 1.8 C 5.37 g/m*3 1.8 C 0 km/h
1268 09-12-2014 09:35:00 1.9 C 5.41 g/m*3 1.9 C 0 km/h
1269 09-12-2014 09:40:00 1.9 C 5.41 g/m*3 1.9 C 0 km/h
1270 09-12-2014 09:45:00 2.1 C 5.48 g/m*3 2.1 C 0 km/h
1271 09-12-2014 09:50:00 2.1 C 5.48 g/m*3 2.1 C 0 km/h
1272 09-12-2014 09:55:00 2.2 C 5.52 g/m*3 2.2 C 1.6 km/h
1273 09-12-2014 10:00:00 2.2 C 5.52 g/m*3 2.2 C 4.8 km/h
1274 09-12-2014 10:05:00 2.3 C 5.56 g/m*3 2.3 C 1.6 km/h
1275 09-12-2014 10:10:00 2.3 C 5.56 g/m*3 2.3 C 0 km/h
Sensor: Nr:Datum:Temp:Abs-Feuchte:Windchill:Wind:
Aussen-T/F 1276 09-12-2014 10:15:00 2.4 C 5.6 g/m*3 2.4 C 0 km/h
1277 09-12-2014 10:20:00 2.5 C 5.63 g/m*3 2.5 C 1.6 km/h
1278 09-12-2014 10:25:00 2.6 C 5.67 g/m*3 2.6 C 0 km/h
1279 09-12-2014 10:30:00 2.6 C 5.67 g/m*3 2.6 C 0 km/h
1280 09-12-2014 10:35:00 2.6 C 5.67 g/m*3 2.6 C 0 km/h
1281 09-12-2014 10:40:00 2.6 C 5.67 g/m*3 2.6 C 0 km/h
1282 09-12-2014 10:45:00 2.7 C 5.71 g/m*3 2.7 C 0 km/h
1283 09-12-2014 10:50:00 2.7 C 5.71 g/m*3 2.7 C 0 km/h
1284 09-12-2014 10:55:00 2.7 C 5.71 g/m*3 2.7 C 0 km/h
1285 09-12-2014 11:00:00 2.7 C 5.71 g/m*3 2.7 C 0 km/h
1286 09-12-2014 11:05:00 2.8 C 5.75 g/m*3 2.8 C 0 km/h
1287 09-12-2014 11:10:00 2.8 C 5.75 g/m*3 2.8 C 0 km/h
1288 09-12-2014 11:15:00 2.9 C 5.79 g/m*3 2.9 C 0 km/h
1289 09-12-2014 11:20:00 2.9 C 5.79 g/m*3 2.9 C 0 km/h
1290 09-12-2014 11:25:00 3 C 5.83 g/m*3 3 C 0 km/h
1291 09-12-2014 11:30:00 3.1 C 5.87 g/m*3 3.1 C 0 km/h
1292 09-12-2014 11:35:00 3.2 C 5.91 g/m*3 3.2 C 1.6 km/h
1293 09-12-2014 11:40:00 3.3 C 5.95 g/m*3 3.3 C 0 km/h
1294 09-12-2014 11:45:00 3.3 C 5.95 g/m*3 3.3 C 1.6 km/h
1295 09-12-2014 11:50:00 3.4 C 5.99 g/m*3 3.4 C 1.6 km/h
1296 09-12-2014 11:55:00 3.6 C 6.07 g/m*3 3.6 C 1.6 km/h
1297 09-12-2014 12:00:00 3.7 C 6.04 g/m*3 3.7 C 4.8 km/h
1298 09-12-2014 12:05:00 3.7 C 6.04 g/m*3 2.09 C 6.4 km/h
1299 09-12-2014 12:10:00 3.7 C 6.04 g/m*3 3.7 C 4.8 km/h
1300 09-12-2014 12:15:00 3.7 C 6.04 g/m*3 3.7 C 4.8 km/h
Sensor: Nr:Datum:Temp:Abs-Feuchte:Windchill:Wind:
Aussen-T/F 1301 09-12-2014 12:20:00 3.7 C 6.04 g/m*3 2.09 C 6.4 km/h
1302 09-12-2014 12:25:00 3.7 C 5.98 g/m*3 3.7 C 4.8 km/h
1303 09-12-2014 12:30:00 3.7 C 5.98 g/m*3 3.7 C 3.2 km/h
1304 09-12-2014 12:35:00 3.8 C 6.02 g/m*3 3.8 C 3.2 km/h
1305 09-12-2014 12:40:00 3.8 C 6.02 g/m*3 3.8 C 4.8 km/h
1306 09-12-2014 12:45:00 3.9 C 6.06 g/m*3 3.9 C 4.8 km/h
1307 09-12-2014 12:50:00 3.9 C 6.06 g/m*3 3.9 C 3.2 km/h
1308 09-12-2014 12:55:00 3.9 C 6.06 g/m*3 3.9 C 1.6 km/h
1309 09-12-2014 13:00:00 4 C 6.04 g/m*3 4 C 1.6 km/h
1310 09-12-2014 13:05:00 4.1 C 6.08 g/m*3 4.1 C 1.6 km/h
1311 09-12-2014 13:10:00 4.1 C 6.08 g/m*3 4.1 C 3.2 km/h
1312 09-12-2014 13:15:00 4.1 C 6.08 g/m*3 2.55 C 6.4 km/h
1313 09-12-2014 13:20:00 4.1 C 6.08 g/m*3 4.1 C 4.8 km/h
1314 09-12-2014 13:25:00 4.1 C 6.08 g/m*3 4.1 C 4.8 km/h
1315 09-12-2014 13:30:00 4.1 C 6.08 g/m*3 4.1 C 0 km/h
1316 09-12-2014 13:35:00 4.1 C 6.08 g/m*3 4.1 C 0 km/h
1317 09-12-2014 13:40:00 4.2 C 6.12 g/m*3 4.2 C 0 km/h
1318 09-12-2014 13:45:00 4.2 C 6.12 g/m*3 4.2 C 0 km/h
1319 09-12-2014 13:50:00 4.2 C 6.12 g/m*3 4.2 C 0 km/h
1320 09-12-2014 13:55:00 4.2 C 6.12 g/m*3 4.2 C 0 km/h
1321 09-12-2014 14:00:00 4.3 C 6.16 g/m*3 4.3 C 1.6 km/h
1322 09-12-2014 14:05:00 4.3 C 6.16 g/m*3 4.3 C 4.8 km/h
1323 09-12-2014 14:10:00 4.4 C 6.14 g/m*3 4.4 C 4.8 km/h
1324 09-12-2014 14:15:00 4.5 C 6.18 g/m*3 3.02 C 6.4 km/h
1325 09-12-2014 14:20:00 4.6 C 6.22 g/m*3 4.6 C 4.8 km/h
Sensor: Nr:Datum:Temp:Abs-Feuchte:Windchill:Wind:
Aussen-T/F 1326 09-12-2014 14:25:00 4.6 C 6.15 g/m*3 4.6 C 4.8 km/h
1327 09-12-2014 14:30:00 4.6 C 6.15 g/m*3 4.6 C 1.6 km/h
1328 09-12-2014 14:35:00 4.6 C 6.15 g/m*3 4.6 C 4.8 km/h
1329 09-12-2014 14:40:00 4.5 C 6.11 g/m*3 4.5 C 4.8 km/h
1330 09-12-2014 14:45:00 4.5 C 6.11 g/m*3 4.5 C 4.8 km/h
1331 09-12-2014 14:50:00 4.5 C 6.11 g/m*3 4.5 C 4.8 km/h
1332 09-12-2014 14:55:00 4.5 C 6.05 g/m*3 4.5 C 4.8 km/h
1333 09-12-2014 15:00:00 4.5 C 6.05 g/m*3 4.5 C 4.8 km/h
1334 09-12-2014 15:05:00 4.4 C 6.01 g/m*3 2.9 C 6.4 km/h
1335 09-12-2014 15:10:00 4.4 C 6.01 g/m*3 2.9 C 6.4 km/h
1336 09-12-2014 15:15:00 4.4 C 6.07 g/m*3 2.01 C 9.7 km/h
1337 09-12-2014 15:20:00 4.4 C 6.07 g/m*3 2.01 C 9.7 km/h
1338 09-12-2014 15:25:00 4.3 C 6.03 g/m*3 4.3 C 3.2 km/h
1339 09-12-2014 15:30:00 4.2 C 5.99 g/m*3 2.67 C 6.4 km/h
1340 09-12-2014 15:35:00 4.2 C 5.99 g/m*3 2.67 C 6.4 km/h
1341 09-12-2014 15:40:00 4.1 C 5.95 g/m*3 4.1 C 4.8 km/h
1342 09-12-2014 15:45:00 4.1 C 5.95 g/m*3 4.1 C 0 km/h
1343 09-12-2014 15:50:00 4.1 C 5.95 g/m*3 2.05 C 8.1 km/h
1344 09-12-2014 15:55:00 4.1 C 5.95 g/m*3 4.1 C 3.2 km/h
1345 09-12-2014 16:00:00 4 C 5.91 g/m*3 4 C 1.6 km/h
1346 09-12-2014 16:05:00 4 C 5.91 g/m*3 4 C 1.6 km/h
1347 09-12-2014 16:10:00 4 C 5.91 g/m*3 4 C 0 km/h
1348 09-12-2014 16:15:00 3.9 C 5.87 g/m*3 3.9 C 0 km/h
1349 09-12-2014 16:20:00 3.9 C 5.94 g/m*3 3.9 C 0 km/h
1350 09-12-2014 16:25:00 3.9 C 5.87 g/m*3 3.9 C 0 km/h
Sensor: Nr:Datum:Temp:Abs-Feuchte:Windchill:Wind:
Aussen-T/F 1351 09-12-2014 16:30:00 3.9 C 5.94 g/m*3 3.9 C 1.6 km/h
1352 09-12-2014 16:35:00 3.8 C 5.9 g/m*3 3.8 C 0 km/h
1353 09-12-2014 16:40:00 3.8 C 5.9 g/m*3 3.8 C 1.6 km/h
1354 09-12-2014 16:45:00 3.8 C 5.9 g/m*3 3.8 C 0 km/h
1355 09-12-2014 16:50:00 3.7 C 5.86 g/m*3 3.7 C 1.6 km/h
1356 09-12-2014 16:55:00 3.7 C 5.86 g/m*3 3.7 C 1.6 km/h
1357 09-12-2014 17:00:00 3.7 C 5.92 g/m*3 3.7 C 1.6 km/h
1358 09-12-2014 17:05:00 3.7 C 5.92 g/m*3 3.7 C 0 km/h
1359 09-12-2014 17:10:00 3.6 C 5.88 g/m*3 3.6 C 0 km/h
1360 09-12-2014 17:15:00 3.6 C 5.88 g/m*3 3.6 C 0 km/h
1361 09-12-2014 17:20:00 3.6 C 5.88 g/m*3 3.6 C 0 km/h
1362 09-12-2014 17:25:00 3.6 C 5.88 g/m*3 3.6 C 0 km/h
1363 09-12-2014 17:30:00 3.6 C 5.88 g/m*3 3.6 C 0 km/h
1364 09-12-2014 17:35:00 3.6 C 5.88 g/m*3 3.6 C 0 km/h
1365 09-12-2014 17:40:00 3.6 C 5.88 g/m*3 3.6 C 0 km/h
1366 09-12-2014 17:45:00 3.5 C 5.9 g/m*3 3.5 C 0 km/h
1367 09-12-2014 17:50:00 3.5 C 5.9 g/m*3 3.5 C 0 km/h
1368 09-12-2014 17:55:00 3.4 C 5.86 g/m*3 3.4 C 1.6 km/h
1369 09-12-2014 18:00:00 3.4 C 5.86 g/m*3 3.4 C 0 km/h
1370 09-12-2014 18:05:00 3.4 C 5.86 g/m*3 3.4 C 1.6 km/h
1371 09-12-2014 18:10:00 3.3 C 5.82 g/m*3 3.3 C 0 km/h
1372 09-12-2014 18:15:00 3.3 C 5.82 g/m*3 3.3 C 0 km/h
1373 09-12-2014 18:20:00 3.2 C 5.79 g/m*3 3.2 C 0 km/h
1374 09-12-2014 18:25:00 3.2 C 5.79 g/m*3 3.2 C 0 km/h
1375 09-12-2014 18:30:00 3.2 C 5.79 g/m*3 3.2 C 0 km/h
Sensor: Nr:Datum:Temp:Abs-Feuchte:Windchill:Wind:
Aussen-T/F 1376 09-12-2014 18:35:00 3.2 C 5.79 g/m*3 3.2 C 0 km/h
1377 09-12-2014 18:40:00 3.2 C 5.79 g/m*3 3.2 C 1.6 km/h
1378 09-12-2014 18:45:00 3.2 C 5.79 g/m*3 3.2 C 1.6 km/h
1379 09-12-2014 18:50:00 3.2 C 5.79 g/m*3 3.2 C 0 km/h
1380 09-12-2014 18:55:00 3.2 C 5.79 g/m*3 3.2 C 0 km/h
1381 09-12-2014 19:00:00 3.2 C 5.79 g/m*3 3.2 C 0 km/h
1382 09-12-2014 19:05:00 3.1 C 5.75 g/m*3 3.1 C 0 km/h
1383 09-12-2014 19:10:00 3 C 5.71 g/m*3 3 C 0 km/h
1384 09-12-2014 19:15:00 3 C 5.71 g/m*3 3 C 0 km/h
1385 09-12-2014 19:20:00 2.9 C 5.67 g/m*3 2.9 C 1.6 km/h
1386 09-12-2014 19:25:00 2.9 C 5.67 g/m*3 2.9 C 0 km/h
1387 09-12-2014 19:30:00 2.9 C 5.67 g/m*3 2.9 C 1.6 km/h
1388 09-12-2014 19:35:00 2.8 C 5.63 g/m*3 2.8 C 3.2 km/h
1389 09-12-2014 19:40:00 2.7 C 5.59 g/m*3 2.7 C 1.6 km/h
1390 09-12-2014 19:45:00 2.5 C 5.52 g/m*3 2.5 C 0 km/h
1391 09-12-2014 19:50:00 2.3 C 5.44 g/m*3 2.3 C 1.6 km/h
1392 09-12-2014 19:55:00 2.2 C 5.41 g/m*3 2.2 C 1.6 km/h
1393 09-12-2014 20:00:00 2.1 C 5.37 g/m*3 2.1 C 3.2 km/h
1394 09-12-2014 20:05:00 2.1 C 5.37 g/m*3 2.1 C 3.2 km/h
1395 09-12-2014 20:10:00 2.1 C 5.37 g/m*3 2.1 C 1.6 km/h
1396 09-12-2014 20:15:00 2 C 5.33 g/m*3 2 C 3.2 km/h
1397 09-12-2014 20:20:00 1.9 C 5.3 g/m*3 1.9 C 1.6 km/h
1398 09-12-2014 20:25:00 1.9 C 5.35 g/m*3 1.9 C 3.2 km/h
1399 09-12-2014 20:30:00 2 C 5.39 g/m*3 2 C 1.6 km/h
1400 09-12-2014 20:35:00 2.1 C 5.43 g/m*3 2.1 C 1.6 km/h
Sensor: Nr:Datum:Temp:Abs-Feuchte:Windchill:Wind:
Aussen-T/F 1401 09-12-2014 20:40:00 2.3 C 5.5 g/m*3 2.3 C 0 km/h
1402 09-12-2014 20:45:00 2.4 C 5.54 g/m*3 2.4 C 0 km/h
1403 09-12-2014 20:50:00 2.4 C 5.54 g/m*3 2.4 C 3.2 km/h
1404 09-12-2014 20:55:00 2.5 C 5.58 g/m*3 2.5 C 1.6 km/h
1405 09-12-2014 21:00:00 2.4 C 5.54 g/m*3 2.4 C 1.6 km/h
1406 09-12-2014 21:05:00 2.3 C 5.44 g/m*3 2.3 C 3.2 km/h
1407 09-12-2014 21:10:00 2.3 C 5.44 g/m*3 2.3 C 3.2 km/h
1408 09-12-2014 21:15:00 2.2 C 5.41 g/m*3 2.2 C 3.2 km/h
1409 09-12-2014 21:20:00 2.2 C 5.41 g/m*3 2.2 C 1.6 km/h
1410 09-12-2014 21:25:00 2.1 C 5.37 g/m*3 2.1 C 0 km/h
1411 09-12-2014 21:30:00 2.2 C 5.41 g/m*3 2.2 C 3.2 km/h
1412 09-12-2014 21:35:00 2.3 C 5.5 g/m*3 2.3 C 0 km/h
1413 09-12-2014 21:40:00 2.3 C 5.5 g/m*3 2.3 C 1.6 km/h
1414 09-12-2014 21:45:00 2.4 C 5.48 g/m*3 2.4 C 0 km/h
1415 09-12-2014 21:50:00 2.4 C 5.48 g/m*3 2.4 C 3.2 km/h
1416 09-12-2014 21:55:00 2.3 C 5.44 g/m*3 2.3 C 1.6 km/h
1417 09-12-2014 22:00:00 2.3 C 5.44 g/m*3 2.3 C 4.8 km/h
1418 09-12-2014 22:05:00 2.3 C 5.44 g/m*3 2.3 C 3.2 km/h
1419 09-12-2014 22:10:00 2.2 C 5.35 g/m*3 2.2 C 1.6 km/h
1420 09-12-2014 22:15:00 2.1 C 5.31 g/m*3 2.1 C 3.2 km/h
1421 09-12-2014 22:20:00 2 C 5.28 g/m*3 2 C 3.2 km/h
1422 09-12-2014 22:25:00 1.9 C 5.3 g/m*3 1.9 C 3.2 km/h
1423 09-12-2014 22:30:00 1.9 C 5.3 g/m*3 1.9 C 1.6 km/h
1424 09-12-2014 22:35:00 1.9 C 5.3 g/m*3 1.9 C 1.6 km/h
1425 09-12-2014 22:40:00 1.9 C 5.3 g/m*3 1.9 C 1.6 km/h
Sensor: Nr:Datum:Temp:Abs-Feuchte:Windchill:Wind:
Aussen-T/F 1426 09-12-2014 22:45:00 1.9 C 5.3 g/m*3 1.9 C 1.6 km/h
1427 09-12-2014 22:50:00 1.9 C 5.3 g/m*3 1.9 C 0 km/h
1428 09-12-2014 22:55:00 1.9 C 5.3 g/m*3 1.9 C 0 km/h
1429 09-12-2014 23:00:00 1.9 C 5.3 g/m*3 1.9 C 1.6 km/h
1430 09-12-2014 23:05:00 1.8 C 5.26 g/m*3 1.8 C 1.6 km/h
1431 09-12-2014 23:10:00 1.8 C 5.21 g/m*3 1.8 C 1.6 km/h
1432 09-12-2014 23:15:00 1.8 C 5.26 g/m*3 1.8 C 0 km/h
1433 09-12-2014 23:20:00 1.7 C 5.17 g/m*3 1.7 C 3.2 km/h
1434 09-12-2014 23:25:00 1.6 C 5.19 g/m*3 1.6 C 3.2 km/h
1435 09-12-2014 23:30:00 1.6 C 5.19 g/m*3 1.6 C 0 km/h
1436 09-12-2014 23:35:00 1.5 C 5.16 g/m*3 1.5 C 0 km/h
1437 09-12-2014 23:40:00 1.5 C 5.16 g/m*3 1.5 C 1.6 km/h
1438 09-12-2014 23:45:00 1.6 C 5.19 g/m*3 1.6 C 1.6 km/h
1439 09-12-2014 23:50:00 1.6 C 5.19 g/m*3 1.6 C 1.6 km/h
1440 09-12-2014 23:55:00 1.7 C 5.23 g/m*3 1.7 C 1.6 km/h
1441 10-12-2014 00:00:00 1.8 C 5.26 g/m*3 1.8 C 3.2 km/h
1442 10-12-2014 00:05:00 1.8 C 5.32 g/m*3 1.8 C 3.2 km/h
1443 10-12-2014 00:10:00 1.9 C 5.35 g/m*3 1.9 C 0 km/h
1444 10-12-2014 00:15:00 1.9 C 5.35 g/m*3 1.9 C 3.2 km/h
1445 10-12-2014 00:20:00 2 C 5.39 g/m*3 2 C 3.2 km/h
1446 10-12-2014 00:25:00 2.1 C 5.37 g/m*3 2.1 C 1.6 km/h
1447 10-12-2014 00:30:00 2.1 C 5.37 g/m*3 2.1 C 3.2 km/h
1448 10-12-2014 00:35:00 2.1 C 5.37 g/m*3 2.1 C 1.6 km/h
1449 10-12-2014 00:40:00 2.1 C 5.37 g/m*3 2.1 C 1.6 km/h
1450 10-12-2014 00:45:00 2.1 C 5.37 g/m*3 2.1 C 1.6 km/h
Sensor: Nr:Datum:Temp:Abs-Feuchte:Windchill:Wind:
Aussen-T/F 1451 10-12-2014 00:50:00 2.2 C 5.41 g/m*3 2.2 C 3.2 km/h
1452 10-12-2014 00:55:00 2.2 C 5.41 g/m*3 2.2 C 0 km/h
1453 10-12-2014 01:00:00 2.2 C 5.41 g/m*3 2.2 C 1.6 km/h
1454 10-12-2014 01:05:00 2.2 C 5.41 g/m*3 2.2 C 0 km/h
1455 10-12-2014 01:10:00 2.3 C 5.44 g/m*3 2.3 C 1.6 km/h
1456 10-12-2014 01:15:00 2.3 C 5.44 g/m*3 2.3 C 1.6 km/h
1457 10-12-2014 01:20:00 2.3 C 5.44 g/m*3 2.3 C 3.2 km/h
1458 10-12-2014 01:25:00 2.4 C 5.48 g/m*3 2.4 C 0 km/h
1459 10-12-2014 01:30:00 2.4 C 5.48 g/m*3 2.4 C 3.2 km/h
1460 10-12-2014 01:35:00 2.6 C 5.5 g/m*3 2.6 C 3.2 km/h
1461 10-12-2014 01:40:00 2.6 C 5.5 g/m*3 2.6 C 3.2 km/h
1462 10-12-2014 01:45:00 2.8 C 5.51 g/m*3 1.05 C 6.4 km/h
1463 10-12-2014 01:50:00 3 C 5.53 g/m*3 0.76 C 8.1 km/h
1464 10-12-2014 01:55:00 3.2 C 5.48 g/m*3 0.22 C 11.3 km/h
1465 10-12-2014 02:00:00 3.3 C 5.52 g/m*3 0.34 C 11.3 km/h
1466 10-12-2014 02:05:00 3.4 C 5.5 g/m*3 0.46 C 11.3 km/h
1467 10-12-2014 02:10:00 3.5 C 5.53 g/m*3 3.5 C 3.2 km/h
1468 10-12-2014 02:15:00 3.5 C 5.53 g/m*3 3.5 C 4.8 km/h
1469 10-12-2014 02:20:00 3.5 C 5.53 g/m*3 3.5 C 3.2 km/h
1470 10-12-2014 02:25:00 3.6 C 5.57 g/m*3 1.46 C 8.1 km/h
1471 10-12-2014 02:30:00 3.6 C 5.51 g/m*3 -0.81 C 20.9 km/h
1472 10-12-2014 02:35:00 3.6 C 5.51 g/m*3 1.98 C 6.4 km/h
1473 10-12-2014 02:40:00 3.7 C 5.55 g/m*3 1.58 C 8.1 km/h
1474 10-12-2014 02:45:00 3.7 C 5.55 g/m*3 3.7 C 3.2 km/h
1475 10-12-2014 02:50:00 3.6 C 5.51 g/m*3 3.6 C 3.2 km/h
Sensor: Nr:Datum:Temp:Abs-Feuchte:Windchill:Wind:
Aussen-T/F 1476 10-12-2014 02:55:00 3.7 C 5.55 g/m*3 3.7 C 3.2 km/h
1477 10-12-2014 03:00:00 3.7 C 5.55 g/m*3 1.58 C 8.1 km/h
1478 10-12-2014 03:05:00 3.7 C 5.55 g/m*3 2.09 C 6.4 km/h
1479 10-12-2014 03:10:00 3.7 C 5.55 g/m*3 1.58 C 8.1 km/h
1480 10-12-2014 03:15:00 3.8 C 5.58 g/m*3 2.21 C 6.4 km/h
1481 10-12-2014 03:20:00 3.8 C 5.58 g/m*3 3.8 C 3.2 km/h
1482 10-12-2014 03:25:00 3.8 C 5.58 g/m*3 2.21 C 6.4 km/h
1483 10-12-2014 03:30:00 3.8 C 5.58 g/m*3 3.8 C 1.6 km/h
1484 10-12-2014 03:35:00 3.8 C 5.58 g/m*3 0.63 C 12.9 km/h
1485 10-12-2014 03:40:00 3.9 C 5.56 g/m*3 2.32 C 6.4 km/h
1486 10-12-2014 03:45:00 3.9 C 5.56 g/m*3 2.32 C 6.4 km/h
1487 10-12-2014 03:50:00 3.9 C 5.56 g/m*3 3.9 C 3.2 km/h
1488 10-12-2014 03:55:00 4 C 5.53 g/m*3 0.88 C 12.9 km/h
1489 10-12-2014 04:00:00 4.1 C 5.57 g/m*3 2.05 C 8.1 km/h
1490 10-12-2014 04:05:00 4.2 C 5.61 g/m*3 1.43 C 11.3 km/h
1491 10-12-2014 04:10:00 4.2 C 5.54 g/m*3 0.84 C 14.5 km/h
1492 10-12-2014 04:15:00 4.2 C 5.61 g/m*3 4.2 C 3.2 km/h
1493 10-12-2014 04:20:00 4.2 C 5.54 g/m*3 1.12 C 12.9 km/h
1494 10-12-2014 04:25:00 4.2 C 5.54 g/m*3 2.17 C 8.1 km/h
1495 10-12-2014 04:30:00 4.2 C 5.54 g/m*3 0.36 C 17.7 km/h
1496 10-12-2014 04:35:00 4.3 C 5.51 g/m*3 1.89 C 9.7 km/h
1497 10-12-2014 04:40:00 4.3 C 5.51 g/m*3 1.24 C 12.9 km/h
1498 10-12-2014 04:45:00 4.3 C 5.51 g/m*3 0.07 C 20.9 km/h
1499 10-12-2014 04:50:00 4.3 C 5.51 g/m*3 2.29 C 8.1 km/h
1500 10-12-2014 04:55:00 4.3 C 5.51 g/m*3 1.55 C 11.3 km/h
Sensor: Nr:Datum:Temp:Abs-Feuchte:Windchill:Wind:
Aussen-T/F 1501 10-12-2014 05:00:00 4.3 C 5.45 g/m*3 1.89 C 9.7 km/h
1502 10-12-2014 05:05:00 4.3 C 5.45 g/m*3 0.27 C 19.3 km/h
1503 10-12-2014 05:10:00 4.3 C 5.45 g/m*3 1.24 C 12.9 km/h
1504 10-12-2014 05:15:00 4.3 C 5.38 g/m*3 1.55 C 11.3 km/h
1505 10-12-2014 05:20:00 4.3 C 5.45 g/m*3 2.78 C 6.4 km/h
1506 10-12-2014 05:25:00 4.2 C 5.41 g/m*3 4.2 C 3.2 km/h
1507 10-12-2014 05:30:00 4.2 C 5.48 g/m*3 4.2 C 1.6 km/h
1508 10-12-2014 05:35:00 4 C 5.4 g/m*3 4 C 3.2 km/h
1509 10-12-2014 05:40:00 4 C 5.34 g/m*3 4 C 3.2 km/h
1510 10-12-2014 05:45:00 4.1 C 5.31 g/m*3 2.05 C 8.1 km/h
1511 10-12-2014 05:50:00 4.1 C 5.31 g/m*3 2.55 C 6.4 km/h
1512 10-12-2014 05:55:00 4.2 C 5.28 g/m*3 2.67 C 6.4 km/h
1513 10-12-2014 06:00:00 4.1 C 5.25 g/m*3 4.1 C 4.8 km/h
1514 10-12-2014 06:05:00 4.1 C 5.25 g/m*3 1.31 C 11.3 km/h
1515 10-12-2014 06:10:00 4.1 C 5.18 g/m*3 1.65 C 9.7 km/h
1516 10-12-2014 06:15:00 4.1 C 5.18 g/m*3 4.1 C 1.6 km/h
1517 10-12-2014 06:20:00 4 C 5.15 g/m*3 1.93 C 8.1 km/h
1518 10-12-2014 06:25:00 4 C 5.09 g/m*3 4 C 3.2 km/h
1519 10-12-2014 06:30:00 3.9 C 5.18 g/m*3 2.32 C 6.4 km/h
1520 10-12-2014 06:35:00 3.9 C 5.05 g/m*3 3.9 C 4.8 km/h
1521 10-12-2014 06:40:00 3.9 C 5.18 g/m*3 3.9 C 4.8 km/h
1522 10-12-2014 06:45:00 3.9 C 5.05 g/m*3 3.9 C 4.8 km/h
1523 10-12-2014 06:50:00 3.9 C 5.05 g/m*3 3.9 C 4.8 km/h
1524 10-12-2014 06:55:00 4.1 C 5.06 g/m*3 2.05 C 8.1 km/h
1525 10-12-2014 07:00:00 4.1 C 5.06 g/m*3 4.1 C 4.8 km/h
Sensor: Nr:Datum:Temp:Abs-Feuchte:Windchill:Wind:
Aussen-T/F 1526 10-12-2014 07:05:00 4.1 C 5.12 g/m*3 4.1 C 1.6 km/h
1527 10-12-2014 07:10:00 4.1 C 5.06 g/m*3 1.65 C 9.7 km/h
1528 10-12-2014 07:15:00 4.2 C 5.03 g/m*3 4.2 C 3.2 km/h
1529 10-12-2014 07:20:00 4.2 C 5.09 g/m*3 4.2 C 4.8 km/h
1530 10-12-2014 07:25:00 4.1 C 5.12 g/m*3 2.55 C 6.4 km/h
1531 10-12-2014 07:30:00 4.1 C 5.18 g/m*3 2.55 C 6.4 km/h
1532 10-12-2014 07:35:00 3.9 C 5.24 g/m*3 3.9 C 4.8 km/h
1533 10-12-2014 07:40:00 3.8 C 5.21 g/m*3 3.8 C 4.8 km/h
1534 10-12-2014 07:45:00 3.8 C 5.14 g/m*3 2.21 C 6.4 km/h
1535 10-12-2014 07:50:00 3.9 C 5.18 g/m*3 3.9 C 4.8 km/h
1536 10-12-2014 07:55:00 3.9 C 5.24 g/m*3 3.9 C 1.6 km/h
1537 10-12-2014 08:00:00 3.8 C 5.33 g/m*3 3.8 C 3.2 km/h
1538 10-12-2014 08:05:00 3.8 C 5.4 g/m*3 3.8 C 4.8 km/h
1539 10-12-2014 08:10:00 3.7 C 5.42 g/m*3 3.7 C 4.8 km/h
1540 10-12-2014 08:15:00 3.6 C 5.32 g/m*3 0.7 C 11.3 km/h
1541 10-12-2014 08:20:00 3.6 C 5.45 g/m*3 3.6 C 3.2 km/h
1542 10-12-2014 08:25:00 3.6 C 5.45 g/m*3 3.6 C 4.8 km/h
1543 10-12-2014 08:30:00 3.6 C 5.45 g/m*3 3.6 C 4.8 km/h
1544 10-12-2014 08:35:00 3.7 C 5.36 g/m*3 0.51 C 12.9 km/h
1545 10-12-2014 08:40:00 3.7 C 5.42 g/m*3 2.09 C 6.4 km/h
1546 10-12-2014 08:45:00 3.8 C 5.4 g/m*3 1.7 C 8.1 km/h
1547 10-12-2014 08:50:00 3.9 C 5.49 g/m*3 1.82 C 8.1 km/h
1548 10-12-2014 08:55:00 3.9 C 5.43 g/m*3 2.32 C 6.4 km/h
1549 10-12-2014 09:00:00 4.1 C 5.5 g/m*3 2.05 C 8.1 km/h
1550 10-12-2014 09:05:00 4.2 C 5.54 g/m*3 2.17 C 8.1 km/h
Sensor: Nr:Datum:Temp:Abs-Feuchte:Windchill:Wind:
Aussen-T/F 1551 10-12-2014 09:10:00 4.3 C 5.58 g/m*3 0.72 C 16.1 km/h
1552 10-12-2014 09:15:00 4.3 C 5.64 g/m*3 1.55 C 11.3 km/h
1553 10-12-2014 09:20:00 4.3 C 5.71 g/m*3 2.78 C 6.4 km/h
1554 10-12-2014 09:25:00 4.2 C 5.73 g/m*3 2.17 C 8.1 km/h
1555 10-12-2014 09:30:00 4.2 C 5.73 g/m*3 0.84 C 14.5 km/h
1556 10-12-2014 09:35:00 4.2 C 5.73 g/m*3 1.43 C 11.3 km/h
1557 10-12-2014 09:40:00 4.2 C 5.73 g/m*3 1.12 C 12.9 km/h
1558 10-12-2014 09:45:00 4.2 C 5.73 g/m*3 1.77 C 9.7 km/h
1559 10-12-2014 09:50:00 4.3 C 5.84 g/m*3 2.29 C 8.1 km/h
1560 10-12-2014 09:55:00 4.3 C 5.84 g/m*3 2.29 C 8.1 km/h
1561 10-12-2014 10:00:00 4.3 C 5.84 g/m*3 4.3 C 3.2 km/h
1562 10-12-2014 10:05:00 4.3 C 5.84 g/m*3 1.89 C 9.7 km/h
1563 10-12-2014 10:10:00 4.3 C 5.84 g/m*3 1.55 C 11.3 km/h
1564 10-12-2014 10:15:00 4.4 C 5.88 g/m*3 1.67 C 11.3 km/h
1565 10-12-2014 10:20:00 4.5 C 5.92 g/m*3 0.96 C 16.1 km/h
1566 10-12-2014 10:25:00 4.6 C 5.89 g/m*3 1.91 C 11.3 km/h
1567 10-12-2014 10:30:00 4.7 C 5.93 g/m*3 0.99 C 17.7 km/h
1568 10-12-2014 10:35:00 4.8 C 5.97 g/m*3 0.71 C 20.9 km/h
1569 10-12-2014 10:40:00 5 C 6.05 g/m*3 1.58 C 16.1 km/h
1570 10-12-2014 10:45:00 5.1 C 6.02 g/m*3 1.49 C 17.7 km/h
1571 10-12-2014 10:50:00 5 C 5.98 g/m*3 0.45 C 25.7 km/h
1572 10-12-2014 10:55:00 4.9 C 5.94 g/m*3 0.48 C 24.1 km/h
1573 10-12-2014 11:00:00 4.9 C 5.94 g/m*3 1.03 C 19.3 km/h
1574 10-12-2014 11:05:00 4.8 C 5.9 g/m*3 1.58 C 14.5 km/h
1575 10-12-2014 11:10:00 4.9 C 5.94 g/m*3 0.65 C 22.5 km/h
Sensor: Nr:Datum:Temp:Abs-Feuchte:Windchill:Wind:
Aussen-T/F 1576 10-12-2014 11:15:00 4.9 C 5.94 g/m*3 1.24 C 17.7 km/h
1577 10-12-2014 11:20:00 4.9 C 5.94 g/m*3 0.65 C 22.5 km/h
1578 10-12-2014 11:25:00 5 C 5.98 g/m*3 0.78 C 22.5 km/h
1579 10-12-2014 11:30:00 5 C 5.98 g/m*3 1.15 C 19.3 km/h
1580 10-12-2014 11:35:00 5 C 5.98 g/m*3 0.61 C 24.1 km/h
1581 10-12-2014 11:40:00 4.9 C 5.94 g/m*3 0.83 C 20.9 km/h
1582 10-12-2014 11:45:00 4.9 C 5.94 g/m*3 -0.13 C 30.6 km/h
1583 10-12-2014 11:50:00 4.9 C 5.94 g/m*3 0.83 C 20.9 km/h
1584 10-12-2014 11:55:00 4.9 C 5.94 g/m*3 0.65 C 22.5 km/h
1585 10-12-2014 12:00:00 4.9 C 5.94 g/m*3 0.15 C 27.4 km/h
1586 10-12-2014 12:05:00 4.9 C 5.94 g/m*3 0.32 C 25.7 km/h
1587 10-12-2014 12:10:00 5 C 5.98 g/m*3 0.78 C 22.5 km/h
1588 10-12-2014 12:15:00 5.1 C 6.02 g/m*3 0.58 C 25.7 km/h
1589 10-12-2014 12:20:00 5.1 C 6.02 g/m*3 1.71 C 16.1 km/h
1590 10-12-2014 12:25:00 5.2 C 6.06 g/m*3 1.83 C 16.1 km/h
1591 10-12-2014 12:30:00 5.2 C 6.06 g/m*3 1.03 C 22.5 km/h
1592 10-12-2014 12:35:00 5.2 C 6.06 g/m*3 1.4 C 19.3 km/h
1593 10-12-2014 12:40:00 5.3 C 6.1 g/m*3 2.2 C 14.5 km/h
1594 10-12-2014 12:45:00 5.3 C 6.1 g/m*3 2.2 C 14.5 km/h
1595 10-12-2014 12:50:00 5.4 C 6.14 g/m*3 2.08 C 16.1 km/h
1596 10-12-2014 12:55:00 5.4 C 6.14 g/m*3 1.86 C 17.7 km/h
1597 10-12-2014 13:00:00 5.5 C 6.18 g/m*3 1.42 C 22.5 km/h
1598 10-12-2014 13:05:00 5.6 C 6.22 g/m*3 1.72 C 20.9 km/h
1599 10-12-2014 13:10:00 5.6 C 6.22 g/m*3 2.11 C 17.7 km/h
1600 10-12-2014 13:15:00 5.7 C 6.26 g/m*3 2.03 C 19.3 km/h
Sensor: Nr:Datum:Temp:Abs-Feuchte:Windchill:Wind:
Aussen-T/F 1601 10-12-2014 13:20:00 5.7 C 6.19 g/m*3 2.69 C 14.5 km/h
1602 10-12-2014 13:25:00 5.7 C 6.19 g/m*3 2.45 C 16.1 km/h
1603 10-12-2014 13:30:00 5.7 C 6.26 g/m*3 2.69 C 14.5 km/h
1604 10-12-2014 13:35:00 5.7 C 6.26 g/m*3 2.95 C 12.9 km/h
1605 10-12-2014 13:40:00 5.6 C 6.22 g/m*3 1.91 C 19.3 km/h
1606 10-12-2014 13:45:00 5.6 C 6.22 g/m*3 2.57 C 14.5 km/h
1607 10-12-2014 13:50:00 5.6 C 6.22 g/m*3 2.57 C 14.5 km/h
1608 10-12-2014 13:55:00 5.6 C 6.29 g/m*3 1.91 C 19.3 km/h
1609 10-12-2014 14:00:00 5.6 C 6.29 g/m*3 3.11 C 11.3 km/h
1610 10-12-2014 14:05:00 5.5 C 6.32 g/m*3 3.32 C 9.7 km/h
1611 10-12-2014 14:10:00 5.5 C 6.32 g/m*3 2.44 C 14.5 km/h
1612 10-12-2014 14:15:00 5.4 C 6.28 g/m*3 2.87 C 11.3 km/h
1613 10-12-2014 14:20:00 5.5 C 6.32 g/m*3 2.7 C 12.9 km/h
1614 10-12-2014 14:25:00 5.5 C 6.32 g/m*3 2.44 C 14.5 km/h
1615 10-12-2014 14:30:00 5.5 C 6.32 g/m*3 2.44 C 14.5 km/h
1616 10-12-2014 14:35:00 5.5 C 6.25 g/m*3 2.7 C 12.9 km/h
1617 10-12-2014 14:40:00 5.5 C 6.25 g/m*3 1.99 C 17.7 km/h
1618 10-12-2014 14:45:00 5.6 C 6.36 g/m*3 2.83 C 12.9 km/h
1619 10-12-2014 14:50:00 5.5 C 6.39 g/m*3 3.32 C 9.7 km/h
1620 10-12-2014 14:55:00 5.4 C 6.35 g/m*3 3.58 C 8.1 km/h
1621 10-12-2014 15:00:00 5.4 C 6.35 g/m*3 2.87 C 11.3 km/h
1622 10-12-2014 15:05:00 5.4 C 6.35 g/m*3 2.87 C 11.3 km/h
1623 10-12-2014 15:10:00 5.5 C 6.39 g/m*3 2.99 C 11.3 km/h
1624 10-12-2014 15:15:00 5.6 C 6.43 g/m*3 4.29 C 6.4 km/h
1625 10-12-2014 15:20:00 5.6 C 6.43 g/m*3 3.11 C 11.3 km/h
Sensor: Nr:Datum:Temp:Abs-Feuchte:Windchill:Wind:
Aussen-T/F 1626 10-12-2014 15:25:00 5.6 C 6.43 g/m*3 3.11 C 11.3 km/h
1627 10-12-2014 15:30:00 5.6 C 6.36 g/m*3 3.44 C 9.7 km/h
1628 10-12-2014 15:35:00 5.7 C 6.4 g/m*3 2.45 C 16.1 km/h
1629 10-12-2014 15:40:00 5.6 C 6.36 g/m*3 2.83 C 12.9 km/h
1630 10-12-2014 15:45:00 5.6 C 6.36 g/m*3 3.11 C 11.3 km/h
1631 10-12-2014 15:50:00 5.5 C 6.32 g/m*3 3.32 C 9.7 km/h
1632 10-12-2014 15:55:00 5.4 C 6.28 g/m*3 3.2 C 9.7 km/h
1633 10-12-2014 16:00:00 5.4 C 6.28 g/m*3 2.08 C 16.1 km/h
1634 10-12-2014 16:05:00 5.4 C 6.28 g/m*3 2.58 C 12.9 km/h
1635 10-12-2014 16:10:00 5.3 C 6.24 g/m*3 3.08 C 9.7 km/h
1636 10-12-2014 16:15:00 5.3 C 6.24 g/m*3 3.08 C 9.7 km/h
1637 10-12-2014 16:20:00 5.2 C 6.27 g/m*3 2.96 C 9.7 km/h
1638 10-12-2014 16:25:00 5.2 C 6.27 g/m*3 5.2 C 4.8 km/h
1639 10-12-2014 16:30:00 5.2 C 6.27 g/m*3 2.96 C 9.7 km/h
1640 10-12-2014 16:35:00 5 C 6.18 g/m*3 5 C 4.8 km/h
1641 10-12-2014 16:40:00 5 C 6.18 g/m*3 3.59 C 6.4 km/h
1642 10-12-2014 16:45:00 4.8 C 6.1 g/m*3 4.8 C 4.8 km/h
1643 10-12-2014 16:50:00 4.7 C 6.13 g/m*3 3.25 C 6.4 km/h
1644 10-12-2014 16:55:00 4.7 C 6.13 g/m*3 4.7 C 3.2 km/h
1645 10-12-2014 17:00:00 4.7 C 6.13 g/m*3 3.25 C 6.4 km/h
1646 10-12-2014 17:05:00 4.4 C 5.94 g/m*3 4.4 C 3.2 km/h
1647 10-12-2014 17:10:00 4.2 C 5.99 g/m*3 4.2 C 4.8 km/h
1648 10-12-2014 17:15:00 4.2 C 6.06 g/m*3 4.2 C 3.2 km/h
1649 10-12-2014 17:20:00 4.1 C 5.95 g/m*3 4.1 C 3.2 km/h
1650 10-12-2014 17:25:00 4 C 5.91 g/m*3 4 C 3.2 km/h
Sensor: Nr:Datum:Temp:Abs-Feuchte:Windchill:Wind:
Aussen-T/F 1651 10-12-2014 17:30:00 4.1 C 6.02 g/m*3 4.1 C 1.6 km/h
1652 10-12-2014 17:35:00 4.2 C 6.12 g/m*3 4.2 C 1.6 km/h
1653 10-12-2014 17:40:00 4.3 C 6.16 g/m*3 4.3 C 1.6 km/h
1654 10-12-2014 17:45:00 4.3 C 6.16 g/m*3 4.3 C 0 km/h
1655 10-12-2014 17:50:00 4.2 C 6.06 g/m*3 4.2 C 0 km/h
1656 10-12-2014 17:55:00 4.1 C 6.02 g/m*3 4.1 C 0 km/h
1657 10-12-2014 18:00:00 4 C 5.98 g/m*3 4 C 0 km/h
1658 10-12-2014 18:05:00 3.9 C 6 g/m*3 3.9 C 0 km/h
1659 10-12-2014 18:10:00 3.8 C 5.96 g/m*3 3.8 C 0 km/h
1660 10-12-2014 18:15:00 3.8 C 5.96 g/m*3 3.8 C 0 km/h
1661 10-12-2014 18:20:00 3.9 C 6 g/m*3 3.9 C 0 km/h
1662 10-12-2014 18:25:00 4.1 C 6.14 g/m*3 4.1 C 3.2 km/h
1663 10-12-2014 18:30:00 4.1 C 6.08 g/m*3 4.1 C 1.6 km/h
1664 10-12-2014 18:35:00 4 C 6.04 g/m*3 4 C 3.2 km/h
1665 10-12-2014 18:40:00 3.9 C 6 g/m*3 3.9 C 3.2 km/h
1666 10-12-2014 18:45:00 3.8 C 5.96 g/m*3 3.8 C 3.2 km/h
1667 10-12-2014 18:50:00 3.8 C 5.96 g/m*3 3.8 C 3.2 km/h
1668 10-12-2014 18:55:00 3.8 C 6.02 g/m*3 3.8 C 3.2 km/h
1669 10-12-2014 19:00:00 3.9 C 6.06 g/m*3 3.9 C 3.2 km/h
1670 10-12-2014 19:05:00 3.9 C 6.06 g/m*3 3.9 C 3.2 km/h
1671 10-12-2014 19:10:00 3.9 C 6 g/m*3 3.9 C 1.6 km/h
1672 10-12-2014 19:15:00 3.9 C 6 g/m*3 3.9 C 3.2 km/h
1673 10-12-2014 19:20:00 3.8 C 5.96 g/m*3 3.8 C 3.2 km/h
1674 10-12-2014 19:25:00 4.2 C 6.19 g/m*3 4.2 C 3.2 km/h
1675 10-12-2014 19:30:00 4.4 C 6.27 g/m*3 4.4 C 3.2 km/h
Sensor: Nr:Datum:Temp:Abs-Feuchte:Windchill:Wind:
Aussen-T/F 1676 10-12-2014 19:35:00 4.4 C 6.2 g/m*3 4.4 C 1.6 km/h
1677 10-12-2014 19:40:00 4.4 C 6.27 g/m*3 4.4 C 1.6 km/h
1678 10-12-2014 19:45:00 4.4 C 6.27 g/m*3 4.4 C 0 km/h
1679 10-12-2014 19:50:00 4.3 C 6.16 g/m*3 4.3 C 3.2 km/h
1680 10-12-2014 19:55:00 4.2 C 6.12 g/m*3 4.2 C 1.6 km/h
1681 10-12-2014 20:00:00 4.1 C 6.08 g/m*3 4.1 C 0 km/h
1682 10-12-2014 20:05:00 4.2 C 6.19 g/m*3 4.2 C 3.2 km/h
1683 10-12-2014 20:10:00 4.3 C 6.23 g/m*3 4.3 C 3.2 km/h
1684 10-12-2014 20:15:00 4.4 C 6.27 g/m*3 2.9 C 6.4 km/h
1685 10-12-2014 20:20:00 4.4 C 6.27 g/m*3 2.4 C 8.1 km/h
1686 10-12-2014 20:25:00 4.7 C 6.33 g/m*3 4.7 C 4.8 km/h
1687 10-12-2014 20:30:00 4.7 C 6.26 g/m*3 3.25 C 6.4 km/h
1688 10-12-2014 20:35:00 4.9 C 6.35 g/m*3 3.48 C 6.4 km/h
1689 10-12-2014 20:40:00 4.9 C 6.28 g/m*3 2.99 C 8.1 km/h
1690 10-12-2014 20:45:00 5 C 6.32 g/m*3 5 C 4.8 km/h
1691 10-12-2014 20:50:00 5.2 C 6.4 g/m*3 5.2 C 4.8 km/h
1692 10-12-2014 20:55:00 5.3 C 6.45 g/m*3 3.94 C 6.4 km/h
1693 10-12-2014 21:00:00 5.3 C 6.45 g/m*3 3.94 C 6.4 km/h
1694 10-12-2014 21:05:00 5.3 C 6.45 g/m*3 3.46 C 8.1 km/h
1695 10-12-2014 21:10:00 5.3 C 6.38 g/m*3 5.3 C 4.8 km/h
1696 10-12-2014 21:15:00 5.3 C 6.45 g/m*3 3.94 C 6.4 km/h
1697 10-12-2014 21:20:00 5.3 C 6.45 g/m*3 5.3 C 4.8 km/h
1698 10-12-2014 21:25:00 5.2 C 6.4 g/m*3 5.2 C 1.6 km/h
1699 10-12-2014 21:30:00 5.2 C 6.4 g/m*3 5.2 C 4.8 km/h
1700 10-12-2014 21:35:00 5.2 C 6.4 g/m*3 5.2 C 1.6 km/h
Sensor: Nr:Datum:Temp:Abs-Feuchte:Windchill:Wind:
Aussen-T/F 1701 10-12-2014 21:40:00 5.2 C 6.4 g/m*3 5.2 C 3.2 km/h
1702 10-12-2014 21:45:00 5.2 C 6.4 g/m*3 5.2 C 1.6 km/h
1703 10-12-2014 21:50:00 5.2 C 6.4 g/m*3 5.2 C 1.6 km/h
1704 10-12-2014 21:55:00 5.2 C 6.4 g/m*3 5.2 C 0 km/h
1705 10-12-2014 22:00:00 5.2 C 6.47 g/m*3 5.2 C 1.6 km/h
1706 10-12-2014 22:05:00 5.2 C 6.47 g/m*3 5.2 C 4.8 km/h
1707 10-12-2014 22:10:00 5.3 C 6.58 g/m*3 5.3 C 1.6 km/h
1708 10-12-2014 22:15:00 5.3 C 6.58 g/m*3 3.94 C 6.4 km/h
1709 10-12-2014 22:20:00 5.4 C 6.63 g/m*3 5.4 C 4.8 km/h
1710 10-12-2014 22:25:00 5.4 C 6.63 g/m*3 5.4 C 3.2 km/h
1711 10-12-2014 22:30:00 5.4 C 6.63 g/m*3 5.4 C 0 km/h
1712 10-12-2014 22:35:00 5.3 C 6.58 g/m*3 5.3 C 1.6 km/h
1713 10-12-2014 22:40:00 5.3 C 6.58 g/m*3 5.3 C 4.8 km/h
1714 10-12-2014 22:45:00 5.3 C 6.58 g/m*3 5.3 C 4.8 km/h
1715 10-12-2014 22:50:00 5.3 C 6.52 g/m*3 5.3 C 4.8 km/h
1716 10-12-2014 22:55:00 5.3 C 6.52 g/m*3 5.3 C 3.2 km/h
1717 10-12-2014 23:00:00 5.4 C 6.49 g/m*3 3.58 C 8.1 km/h
1718 10-12-2014 23:05:00 5.7 C 6.55 g/m*3 3.56 C 9.7 km/h
1719 10-12-2014 23:10:00 5.8 C 6.59 g/m*3 4.05 C 8.1 km/h
1720 10-12-2014 23:15:00 5.9 C 6.56 g/m*3 3.48 C 11.3 km/h
1721 10-12-2014 23:20:00 6.1 C 6.58 g/m*3 4.4 C 8.1 km/h
1722 10-12-2014 23:25:00 6.1 C 6.58 g/m*3 4.4 C 8.1 km/h
1723 10-12-2014 23:30:00 6.1 C 6.58 g/m*3 4.86 C 6.4 km/h
1724 10-12-2014 23:35:00 5.9 C 6.56 g/m*3 5.9 C 4.8 km/h
1725 10-12-2014 23:40:00 5.8 C 6.52 g/m*3 5.8 C 0 km/h
Sensor: Nr:Datum:Temp:Abs-Feuchte:Windchill:Wind:
Aussen-T/F 1726 10-12-2014 23:45:00 5.6 C 6.5 g/m*3 5.6 C 0 km/h
1727 10-12-2014 23:50:00 5.4 C 6.49 g/m*3 5.4 C 0 km/h
1728 10-12-2014 23:55:00 5.3 C 6.45 g/m*3 5.3 C 0 km/h

Legende:
   Min
   Max


Maximal/Minimal-Werte vom 05.12.2014 - 10.12.2014

Sensor Min Max Avg
Temp
(Aussen-T/F)
0.8 °C
09-12-2014  06:55:00
6.1 °C
10-12-2014  23:20:00
3.85 °C
Abs-Feuchte
(Aussen-T/F)
4.97 g/m*3
09-12-2014  06:55:00
6.7 g/m*3
06-12-2014  18:35:00
5.87 g/m*3
Windchill
(Aussen-T/F)
-0.81 C
10-12-2014  02:30:00
5.9 C
10-12-2014  23:35:00
3.21 C

Die Daten stammen von einer Davis Vantage Pro 2 Wetter-Station und werden unter Linux mit der Software wview2wettercgi und aufbereitet. Alle Angaben erfolgen ohne Gewähr für ihre Vollständigkeit oder Richtigkeit.
Kontakt: Rainer Krienke krienke@uni-koblenz.de . Meine Webseiten an der Uni Koblenz oder privat.
Version: $Revision: 0.78 $